| time (UTC) | temp F | wind direction | speed MPH | gust MPH | rain 1hr in | rain 24hr in | rain mn in | humidity % | barometer mb |
| 20260902164604 | 91 | 216 | 7.0 | 15.0 | 0.00 | 0.00 | 0.00 | 69 | 1009.2 |
| 20260902164502 | 91 | 220 | 7.0 | 15.0 | 0.00 | 0.00 | 0.00 | 69 | 1009.2 |
| 20260902164403 | 91 | 244 | 6.0 | 10.0 | 0.00 | 0.00 | 0.00 | 69 | 1009.2 |
| 20260902164302 | 90 | 245 | 6.0 | 10.0 | 0.00 | 0.00 | 0.00 | 70 | 1009.3 |
| 20260902164203 | 90 | 271 | 5.0 | 9.0 | 0.00 | 0.00 | 0.00 | 70 | 1009.3 |
| 20260902164104 | 90 | 207 | 5.0 | 10.0 | 0.00 | 0.00 | 0.00 | 70 | 1009.3 |
| 20260902164004 | 90 | 178 | 5.0 | 13.0 | 0.00 | 0.00 | 0.00 | 70 | 1009.3 |
| 20260902163903 | 90 | 188 | 5.0 | 13.0 | 0.00 | 0.00 | 0.00 | 70 | 1009.3 |
| 20260902163802 | 90 | 259 | 3.0 | 13.0 | 0.00 | 0.00 | 0.00 | 71 | 1009.3 |
| 20260902163704 | 89 | 245 | 4.0 | 14.0 | 0.00 | 0.00 | 0.00 | 71 | 1009.3 |
| 20260902163603 | 89 | 195 | 4.0 | 14.0 | 0.00 | 0.00 | 0.00 | 71 | 1009.3 |
| 20260902163504 | 89 | 190 | 4.0 | 14.0 | 0.00 | 0.00 | 0.00 | 71 | 1009.3 |
| 20260902163404 | 89 | 207 | 5.0 | 14.0 | 0.00 | 0.00 | 0.00 | 71 | 1009.3 |
| 20260902163302 | 89 | 226 | 6.0 | 14.0 | 0.00 | 0.00 | 0.00 | 72 | 1009.4 |
| 20260902163205 | 89 | 241 | 8.0 | 14.0 | 0.00 | 0.00 | 0.00 | 71 | 1009.4 |
| 20260902163104 | 89 | 251 | 9.0 | 14.0 | 0.00 | 0.00 | 0.00 | 71 | 1009.2 |
| 20260902163004 | 89 | 231 | 8.0 | 14.0 | 0.00 | 0.00 | 0.00 | 72 | 1009.3 |
| 20260902162904 | 88 | 259 | 7.0 | 14.0 | 0.00 | 0.00 | 0.00 | 72 | 1009.3 |
| 20260902162802 | 88 | 230 | 7.0 | 14.0 | 0.00 | 0.00 | 0.00 | 72 | 1009.3 |
| 20260902162704 | 88 | 230 | 6.0 | 14.0 | 0.00 | 0.00 | 0.00 | 72 | 1009.3 |
| 20260902162600 | 88 | 234 | 6.0 | 13.0 | 0.00 | 0.00 | 0.00 | 73 | 1009.3 |
| 20260902162500 | 88 | 250 | 5.0 | 13.0 | 0.00 | 0.00 | 0.00 | 73 | 1009.3 |
| 20260902162356 | 88 | 230 | 6.0 | 13.0 | 0.00 | 0.00 | 0.00 | 73 | 1009.3 |
| 20260902162255 | 88 | 261 | 8.0 | 13.0 | 0.00 | 0.00 | 0.00 | 73 | 1009.2 |
| 20260902162151 | 88 | 250 | 7.0 | 13.0 | 0.00 | 0.00 | 0.00 | 73 | 1009.3 |
| 20260902162050 | 88 | 238 | 8.0 | 13.0 | 0.00 | 0.00 | 0.00 | 73 | 1009.4 |
| 20260902161945 | 88 | 240 | 7.0 | 13.0 | 0.00 | 0.00 | 0.00 | 73 | 1009.3 |
| 20260902161843 | 88 | 216 | 6.0 | 13.0 | 0.00 | 0.00 | 0.00 | 73 | 1009.4 |
| 20260902161739 | 87 | 234 | 6.0 | 13.0 | 0.00 | 0.00 | 0.00 | 74 | 1009.4 |
| 20260902161633 | 87 | 254 | 8.0 | 13.0 | 0.00 | 0.00 | 0.00 | 74 | 1009.3 |
| 20260902161532 | 87 | 212 | 7.0 | 13.0 | 0.00 | 0.00 | 0.00 | 74 | 1009.3 |
| 20260902161432 | 87 | 238 | 6.0 | 12.0 | 0.00 | 0.00 | 0.00 | 74 | 1009.4 |
| 20260902161331 | 87 | 244 | 7.0 | 12.0 | 0.00 | 0.00 | 0.00 | 73 | 1009.4 |
| 20260902161231 | 88 | 197 | 6.0 | 12.0 | 0.00 | 0.00 | 0.00 | 74 | 1009.4 |
| 20260902161131 | 88 | 206 | 5.0 | 12.0 | 0.00 | 0.00 | 0.00 | 74 | 1009.4 |
| 20260902161033 | 88 | 213 | 5.0 | 12.0 | 0.00 | 0.00 | 0.00 | 74 | 1009.4 |
| 20260902160931 | 88 | 214 | 4.0 | 10.0 | 0.00 | 0.00 | 0.00 | 74 | 1009.4 |
| 20260902160832 | 87 | 231 | 5.0 | 13.0 | 0.00 | 0.00 | 0.00 | 74 | 1009.5 |
| 20260902160731 | 87 | 224 | 6.0 | 13.0 | 0.00 | 0.00 | 0.00 | 74 | 1009.4 |
| 20260902160631 | 87 | 268 | 6.0 | 14.0 | 0.00 | 0.00 | 0.00 | 74 | 1009.4 |
| 20260902160533 | 87 | 234 | 6.0 | 14.0 | 0.00 | 0.00 | 0.00 | 75 | 1009.4 |
| 20260902160433 | 87 | 221 | 4.0 | 14.0 | 0.00 | 0.00 | 0.00 | 75 | 1009.4 |
| 20260902160331 | 87 | 224 | 4.0 | 14.0 | 0.00 | 0.00 | 0.00 | 76 | 1009.4 |
| 20260902160233 | 87 | 196 | 4.0 | 14.0 | 0.00 | 0.00 | 0.00 | 76 | 1009.4 |
| 20260902160132 | 87 | 212 | 6.0 | 14.0 | 0.00 | 0.00 | 0.00 | 76 | 1009.4 |
| 20260902160034 | 87 | 212 | 6.0 | 14.0 | 0.00 | 0.00 | 0.00 | 76 | 1009.4 |
| 20260902155932 | 87 | 261 | 7.0 | 14.0 | 0.00 | 0.00 | 0.00 | 76 | 1009.3 |
| 20260902155833 | 87 | 257 | 8.0 | 14.0 | 0.00 | 0.00 | 0.00 | 77 | 1009.4 |
| 20260902155733 | 87 | 235 | 8.0 | 14.0 | 0.00 | 0.00 | 0.00 | 77 | 1009.4 |
| 20260902155632 | 86 | 250 | 7.0 | 14.0 | 0.00 | 0.00 | 0.00 | 77 | 1009.4 |
| 20260902155533 | 86 | 221 | 7.0 | 14.0 | 0.00 | 0.00 | 0.00 | 77 | 1009.4 |
| 20260902155431 | 86 | 238 | 8.0 | 14.0 | 0.00 | 0.00 | 0.00 | 77 | 1009.3 |
| 20260902155332 | 86 | 247 | 6.0 | 14.0 | 0.00 | 0.00 | 0.00 | 79 | 1009.3 |
| 20260902155228 | 86 | 206 | 5.0 | 13.0 | 0.00 | 0.00 | 0.00 | 79 | 1009.4 |
| 20260902155114 | 86 | 216 | 6.0 | 13.0 | 0.00 | 0.00 | 0.00 | 79 | 1009.4 |
| 20260902155009 | 85 | 265 | 6.0 | 13.0 | 0.00 | 0.00 | 0.00 | 79 | 1009.3 |
| 20260902154906 | 85 | 234 | 5.0 | 13.0 | 0.00 | 0.00 | 0.00 | 79 | 1009.3 |
| 20260902154806 | 85 | 251 | 7.0 | 13.0 | 0.00 | 0.00 | 0.00 | 79 | 1009.3 |
| 20260902154708 | 85 | 217 | 9.0 | 13.0 | 0.00 | 0.00 | 0.00 | 79 | 1009.3 |
| 20260902154605 | 85 | 219 | 8.0 | 13.0 | 0.00 | 0.00 | 0.00 | 79 | 1009.3 |
| 20260902154507 | 85 | 243 | 7.0 | 12.0 | 0.00 | 0.00 | 0.00 | 80 | 1009.3 |
| 20260902154406 | 85 | 189 | 7.0 | 12.0 | 0.00 | 0.00 | 0.00 | 80 | 1009.4 |
| 20260902154306 | 85 | 272 | 6.0 | 12.0 | 0.00 | 0.00 | 0.00 | 80 | 1009.3 |
| 20260902154205 | 85 | 223 | 5.0 | 14.0 | 0.00 | 0.00 | 0.00 | 80 | 1009.4 |
| 20260902154105 | 85 | 226 | 6.0 | 14.0 | 0.00 | 0.00 | 0.00 | 80 | 1009.4 |
| 20260902154006 | 85 | 220 | 7.0 | 14.0 | 0.00 | 0.00 | 0.00 | 80 | 1009.3 |
| 20260902153905 | 85 | 266 | 7.0 | 14.0 | 0.00 | 0.00 | 0.00 | 80 | 1009.3 |
| 20260902153805 | 85 | 228 | 7.0 | 14.0 | 0.00 | 0.00 | 0.00 | 80 | 1009.4 |
| 20260902153705 | 85 | 237 | 7.0 | 14.0 | 0.00 | 0.00 | 0.00 | 80 | 1009.4 |
| 20260902153606 | 85 | 262 | 7.0 | 14.0 | 0.00 | 0.00 | 0.00 | 80 | 1009.4 |
| 20260902153505 | 85 | 223 | 5.0 | 14.0 | 0.00 | 0.00 | 0.00 | 80 | 1009.4 |
| 20260902153406 | 85 | 226 | 6.0 | 14.0 | 0.00 | 0.00 | 0.00 | 80 | 1009.4 |
| 20260902153305 | 85 | 258 | 7.0 | 14.0 | 0.00 | 0.00 | 0.00 | 81 | 1009.4 |
| 20260902153205 | 85 | 226 | 6.0 | 12.0 | 0.00 | 0.00 | 0.00 | 81 | 1009.4 |
| 20260902153105 | 85 | 243 | 7.0 | 12.0 | 0.00 | 0.00 | 0.00 | 81 | 1009.4 |
| 20260902153006 | 85 | 216 | 8.0 | 12.0 | 0.00 | 0.00 | 0.00 | 81 | 1009.3 |
| 20260902152905 | 85 | 265 | 6.0 | 11.0 | 0.00 | 0.00 | 0.00 | 82 | 1009.3 |
| 20260902152806 | 85 | 223 | 4.0 | 7.0 | 0.00 | 0.00 | 0.00 | 82 | 1009.4 |
| 20260902152705 | 85 | 228 | 5.0 | 7.0 | 0.00 | 0.00 | 0.00 | 82 | 1009.4 |
| 20260902152607 | 85 | 200 | 3.0 | 7.0 | 0.00 | 0.00 | 0.00 | 83 | 1009.4 |
| 20260902152505 | 85 | 258 | 3.0 | 7.0 | 0.00 | 0.00 | 0.00 | 83 | 1009.3 |
| 20260902152405 | 84 | 224 | 4.0 | 7.0 | 0.00 | 0.00 | 0.00 | 83 | 1009.3 |
| 20260902152308 | 84 | 214 | 4.0 | 10.0 | 0.00 | 0.00 | 0.00 | 84 | 1009.3 |
| 20260902152206 | 84 | 226 | 4.0 | 10.0 | 0.00 | 0.00 | 0.00 | 84 | 1009.3 |
| 20260902152107 | 84 | 204 | 4.0 | 10.0 | 0.00 | 0.00 | 0.00 | 84 | 1009.3 |
| 20260902152007 | 84 | 210 | 4.0 | 11.0 | 0.00 | 0.00 | 0.00 | 84 | 1009.4 |
| 20260902151905 | 84 | 231 | 4.0 | 11.0 | 0.00 | 0.00 | 0.00 | 84 | 1009.2 |
| 20260902151805 | 84 | 228 | 5.0 | 11.0 | 0.00 | 0.00 | 0.00 | 84 | 1009.3 |
| 20260902151705 | 83 | 226 | 5.0 | 11.0 | 0.00 | 0.00 | 0.00 | 84 | 1009.2 |
| 20260902151604 | 83 | 223 | 4.0 | 11.0 | 0.00 | 0.00 | 0.00 | 85 | 1009.3 |
| 20260902151504 | 83 | 254 | 5.0 | 11.0 | 0.00 | 0.00 | 0.00 | 85 | 1009.3 |
| 20260902151407 | 83 | 223 | 7.0 | 11.0 | 0.00 | 0.00 | 0.00 | 85 | 1009.3 |
| 20260902151304 | 83 | 228 | 8.0 | 11.0 | 0.00 | 0.00 | 0.00 | 85 | 1009.3 |
| 20260902151205 | 83 | 251 | 8.0 | 11.0 | 0.00 | 0.00 | 0.00 | 85 | 1009.3 |
| 20260902151104 | 83 | 238 | 8.0 | 11.0 | 0.00 | 0.00 | 0.00 | 85 | 1009.4 |
| 20260902151005 | 83 | 235 | 6.0 | 11.0 | 0.00 | 0.00 | 0.00 | 85 | 1009.4 |
| 20260902150906 | 83 | 240 | 5.0 | 11.0 | 0.00 | 0.00 | 0.00 | 85 | 1009.4 |
| 20260902150804 | 83 | 257 | 8.0 | 11.0 | 0.00 | 0.00 | 0.00 | 85 | 1009.4 |
| 20260902150704 | 83 | 244 | 8.0 | 11.0 | 0.00 | 0.00 | 0.00 | 85 | 1009.4 |
| 20260902150604 | 83 | 261 | 7.0 | 10.0 | 0.00 | 0.00 | 0.00 | 85 | 1009.4 |
| 20260902150504 | 83 | 254 | 8.0 | 10.0 | 0.00 | 0.00 | 0.00 | 85 | 1009.5 |
| 20260902150405 | 83 | 261 | 8.0 | 10.0 | 0.00 | 0.00 | 0.00 | 85 | 1009.4 |
| 20260902150305 | 83 | 217 | 7.0 | 9.0 | 0.00 | 0.00 | 0.00 | 85 | 1009.4 |
| 20260902150204 | 83 | 231 | 5.0 | 10.0 | 0.00 | 0.00 | 0.00 | 85 | 1009.4 |
| 20260902150104 | 83 | 258 | 4.0 | 10.0 | 0.00 | 0.00 | 0.00 | 86 | 1009.5 |
| 20260902150004 | 83 | 230 | 4.0 | 10.0 | 0.00 | 0.00 | 0.00 | 86 | 1009.4 |
| 20260902145905 | 83 | 243 | 4.0 | 10.0 | 0.00 | 0.00 | 0.00 | 86 | 1009.5 |
| 20260902145805 | 83 | 233 | 5.0 | 10.0 | 0.00 | 0.00 | 0.00 | 86 | 1009.5 |
| 20260902145704 | 83 | 238 | 3.0 | 10.0 | 0.00 | 0.00 | 0.00 | 86 | 1009.4 |
| 20260902145605 | 83 | 245 | 3.0 | 10.0 | 0.00 | 0.00 | 0.00 | 86 | 1009.4 |
| 20260902145504 | 83 | 224 | 3.0 | 10.0 | 0.00 | 0.00 | 0.00 | 86 | 1009.5 |
| 20260902145404 | 82 | 243 | 5.0 | 10.0 | 0.00 | 0.00 | 0.00 | 86 | 1009.4 |
| 20260902145306 | 82 | 235 | 5.0 | 10.0 | 0.00 | 0.00 | 0.00 | 86 | 1009.4 |
| 20260902145207 | 82 | 254 | 5.0 | 7.0 | 0.00 | 0.00 | 0.00 | 86 | 1009.4 |
| 20260902145104 | 82 | 252 | 6.0 | 7.0 | 0.00 | 0.00 | 0.00 | 86 | 1009.4 |
| 20260902145005 | 82 | 255 | 5.0 | 7.0 | 0.00 | 0.00 | 0.00 | 86 | 1009.3 |
| 20260902144904 | 82 | 247 | 4.0 | 10.0 | 0.00 | 0.00 | 0.00 | 87 | 1009.3 |
| 20260902144806 | 82 | 254 | 4.0 | 14.0 | 0.00 | 0.00 | 0.00 | 87 | 1009.4 |
| 20260902144704 | 82 | 230 | 4.0 | 14.0 | 0.00 | 0.00 | 0.00 | 87 | 1009.4 |
| 20260902144605 | 82 | 216 | 4.0 | 14.0 | 0.00 | 0.00 | 0.00 | 87 | 1009.4 |
| 20260902144504 | 82 | 230 | 4.0 | 14.0 | 0.00 | 0.00 | 0.00 | 87 | 1009.4 |
| 20260902144405 | 82 | 221 | 3.0 | 14.0 | 0.00 | 0.00 | 0.00 | 87 | 1009.4 |
| 20260902144305 | 82 | 202 | 3.0 | 14.0 | 0.00 | 0.00 | 0.00 | 87 | 1009.4 |
| 20260902144204 | 82 | 216 | 4.0 | 14.0 | 0.00 | 0.00 | 0.00 | 87 | 1009.3 |
| 20260902144104 | 82 | 214 | 4.0 | 14.0 | 0.00 | 0.00 | 0.00 | 87 | 1009.4 |
| 20260902144004 | 82 | 212 | 8.0 | 14.0 | 0.00 | 0.00 | 0.00 | 87 | 1009.4 |
| 20260902143904 | 82 | 255 | 8.0 | 14.0 | 0.00 | 0.00 | 0.00 | 87 | 1009.3 |
| 20260902143804 | 82 | 223 | 5.0 | 9.0 | 0.00 | 0.00 | 0.00 | 87 | 1009.3 |
| 20260902143704 | 82 | 254 | 4.0 | 7.0 | 0.00 | 0.00 | 0.00 | 87 | 1009.3 |
| 20260902143603 | 82 | 234 | 5.0 | 7.0 | 0.00 | 0.00 | 0.00 | 87 | 1009.4 |
| 20260902143504 | 82 | 228 | 4.0 | 7.0 | 0.00 | 0.00 | 0.00 | 87 | 1009.3 |
| 20260902143404 | 82 | 250 | 4.0 | 6.0 | 0.00 | 0.00 | 0.00 | 87 | 1009.3 |
| 20260902143304 | 82 | 255 | 4.0 | 6.0 | 0.00 | 0.00 | 0.00 | 87 | 1009.3 |
| 20260902143205 | 82 | 221 | 3.0 | 6.0 | 0.00 | 0.00 | 0.00 | 88 | 1009.3 |
| 20260902143104 | 82 | 226 | 4.0 | 6.0 | 0.00 | 0.00 | 0.00 | 88 | 1009.2 |
| 20260902143005 | 82 | 226 | 4.0 | 6.0 | 0.00 | 0.00 | 0.00 | 88 | 1009.3 |
| 20260902142906 | 82 | 234 | 3.0 | 6.0 | 0.00 | 0.00 | 0.00 | 88 | 1009.3 |
| 20260902142804 | 82 | 210 | 2.0 | 6.0 | 0.00 | 0.00 | 0.00 | 88 | 1009.3 |
| 20260902142705 | 82 | 199 | 2.0 | 6.0 | 0.00 | 0.00 | 0.00 | 88 | 1009.3 |
| 20260902142605 | 82 | 214 | 2.0 | 6.0 | 0.00 | 0.00 | 0.00 | 88 | 1009.3 |
| 20260902142505 | 81 | 202 | 3.0 | 6.0 | 0.00 | 0.00 | 0.00 | 88 | 1009.3 |
| 20260902142404 | 81 | 213 | 3.0 | 6.0 | 0.00 | 0.00 | 0.00 | 88 | 1009.3 |
| 20260902142306 | 81 | 223 | 4.0 | 6.0 | 0.00 | 0.00 | 0.00 | 88 | 1009.3 |
| 20260902142204 | 81 | 204 | 4.0 | 6.0 | 0.00 | 0.00 | 0.00 | 88 | 1009.3 |
| 20260902142103 | 81 | 214 | 4.0 | 6.0 | 0.00 | 0.00 | 0.00 | 88 | 1009.2 |
| 20260902142006 | 81 | 252 | 4.0 | 6.0 | 0.00 | 0.00 | 0.00 | 88 | 1009.2 |
| 20260902141904 | 81 | 250 | 4.0 | 6.0 | 0.00 | 0.00 | 0.00 | 88 | 1009.2 |
| 20260902141806 | 81 | 247 | 3.0 | 6.0 | 0.00 | 0.00 | 0.00 | 88 | 1009.3 |
| 20260902141703 | 81 | 244 | 4.0 | 6.0 | 0.00 | 0.00 | 0.00 | 88 | 1009.3 |
| 20260902141602 | 81 | 221 | 4.0 | 6.0 | 0.00 | 0.00 | 0.00 | 88 | 1009.2 |
| 20260902141506 | 81 | 221 | 3.0 | 6.0 | 0.00 | 0.00 | 0.00 | 88 | 1009.2 |
| 20260902141404 | 81 | 217 | 1.0 | 7.0 | 0.00 | 0.00 | 0.00 | 88 | 1009.3 |
| 20260902141303 | 81 | 207 | 1.0 | 7.0 | 0.00 | 0.00 | 0.00 | 88 | 1009.2 |
| 20260902141203 | 81 | 210 | 3.0 | 7.0 | 0.00 | 0.00 | 0.00 | 88 | 1009.3 |
| 20260902141104 | 81 | 241 | 4.0 | 7.0 | 0.00 | 0.00 | 0.00 | 88 | 1009.2 |
| 20260902141003 | 81 | 269 | 4.0 | 7.0 | 0.00 | 0.00 | 0.00 | 88 | 1009.3 |
| 20260902140904 | 81 | 224 | 3.0 | 7.0 | 0.00 | 0.00 | 0.00 | 88 | 1009.3 |
| 20260902140803 | 81 | 206 | 4.0 | 7.0 | 0.00 | 0.00 | 0.00 | 88 | 1009.2 |
| 20260902140703 | 81 | 238 | 4.0 | 7.0 | 0.00 | 0.00 | 0.00 | 88 | 1009.2 |
| 20260902140603 | 81 | 203 | 4.0 | 7.0 | 0.00 | 0.00 | 0.00 | 88 | 1009.2 |
| 20260902140505 | 81 | 235 | 4.0 | 7.0 | 0.00 | 0.00 | 0.00 | 88 | 1009.2 |
| 20260902140403 | 81 | 219 | 4.0 | 7.0 | 0.00 | 0.00 | 0.00 | 89 | 1009.2 |
| 20260902140303 | 81 | 264 | 4.0 | 7.0 | 0.00 | 0.00 | 0.00 | 89 | 1009.2 |
| 20260902140204 | 81 | 228 | 2.0 | 9.0 | 0.00 | 0.00 | 0.00 | 89 | 1009.3 |
| 20260902140104 | 81 | 220 | 2.0 | 9.0 | 0.00 | 0.00 | 0.00 | 89 | 1009.2 |
| 20260902140003 | 81 | 213 | 1.0 | 9.0 | 0.00 | 0.00 | 0.00 | 89 | 1009.3 |
| 20260902135904 | 81 | 219 | 2.0 | 9.0 | 0.00 | 0.00 | 0.00 | 89 | 1009.3 |
| 20260902135803 | 81 | 213 | 2.0 | 9.0 | 0.00 | 0.00 | 0.00 | 89 | 1009.3 |
| 20260902135703 | 81 | 212 | 2.0 | 9.0 | 0.00 | 0.00 | 0.00 | 89 | 1009.3 |
| 20260902135605 | 81 | 216 | 1.0 | 9.0 | 0.00 | 0.00 | 0.00 | 89 | 1009.3 |
| 20260902135503 | 81 | 220 | 1.0 | 9.0 | 0.00 | 0.00 | 0.00 | 89 | 1009.3 |
| 20260902135403 | 81 | 221 | 2.0 | 9.0 | 0.00 | 0.00 | 0.00 | 89 | 1009.3 |
| 20260902135306 | 81 | 223 | 3.0 | 9.0 | 0.00 | 0.00 | 0.00 | 89 | 1009.3 |
| 20260902135203 | 81 | 235 | 3.0 | 7.0 | 0.00 | 0.00 | 0.00 | 89 | 1009.3 |
| 20260902135104 | 81 | 223 | 4.0 | 7.0 | 0.00 | 0.00 | 0.00 | 89 | 1009.3 |
| 20260902135003 | 81 | 216 | 4.0 | 7.0 | 0.00 | 0.00 | 0.00 | 89 | 1009.3 |
| 20260902134905 | 81 | 252 | 3.0 | 7.0 | 0.00 | 0.00 | 0.00 | 89 | 1009.2 |
| 20260902134804 | 81 | 238 | 3.0 | 5.0 | 0.00 | 0.00 | 0.00 | 89 | 1009.2 |
| 20260902134703 | 81 | 244 | 3.0 | 5.0 | 0.00 | 0.00 | 0.00 | 89 | 1009.2 |
| 20260902134601 | 81 | 233 | 3.0 | 5.0 | 0.00 | 0.00 | 0.00 | 89 | 1009.4 |
| 20260902134500 | 81 | 221 | 2.0 | 7.0 | 0.00 | 0.00 | 0.00 | 90 | 1009.2 |
| 20260902134358 | 81 | 223 | 2.0 | 7.0 | 0.00 | 0.00 | 0.00 | 90 | 1009.3 |
| 20260902134258 | 81 | 228 | 2.0 | 7.0 | 0.00 | 0.00 | 0.00 | 90 | 1009.3 |
| 20260902134158 | 80 | 245 | 3.0 | 7.0 | 0.00 | 0.00 | 0.00 | 90 | 1009.2 |
| 20260902134055 | 80 | 220 | 3.0 | 7.0 | 0.00 | 0.00 | 0.00 | 90 | 1009.3 |
| 20260902133954 | 80 | 228 | 3.0 | 7.0 | 0.00 | 0.00 | 0.00 | 90 | 1009.3 |
| 20260902133852 | 80 | 258 | 2.0 | 7.0 | 0.00 | 0.00 | 0.00 | 90 | 1009.3 |
| 20260902133751 | 80 | 240 | 2.0 | 7.0 | 0.00 | 0.00 | 0.00 | 90 | 1009.3 |
| 20260902133650 | 80 | 243 | 3.0 | 7.0 | 0.00 | 0.00 | 0.00 | 90 | 1009.2 |
| 20260902133547 | 80 | 252 | 3.0 | 7.0 | 0.00 | 0.00 | 0.00 | 90 | 1009.3 |
| 20260902133441 | 80 | 212 | 2.0 | 6.0 | 0.00 | 0.00 | 0.00 | 90 | 1009.3 |
| 20260902133338 | 80 | 207 | 2.0 | 6.0 | 0.00 | 0.00 | 0.00 | 90 | 1009.2 |
| 20260902133232 | 80 | 219 | 2.0 | 6.0 | 0.00 | 0.00 | 0.00 | 90 | 1009.3 |
| 20260902133130 | 80 | 199 | 3.0 | 6.0 | 0.00 | 0.00 | 0.00 | 90 | 1009.2 |
| 20260902133027 | 80 | 219 | 3.0 | 6.0 | 0.00 | 0.00 | 0.00 | 90 | 1009.2 |
| 20260902132924 | 80 | 228 | 3.0 | 6.0 | 0.00 | 0.00 | 0.00 | 90 | 1009.2 |
| 20260902132822 | 80 | 219 | 2.0 | 6.0 | 0.00 | 0.00 | 0.00 | 90 | 1009.2 |
| 20260902132716 | 80 | 216 | 2.0 | 5.0 | 0.00 | 0.00 | 0.00 | 90 | 1009.3 |
| 20260902132605 | 80 | 216 | 2.0 | 5.0 | 0.00 | 0.00 | 0.00 | 90 | 1009.1 |
| 20260902132503 | 80 | 213 | 2.0 | 5.0 | 0.00 | 0.00 | 0.00 | 90 | 1009.2 |
| 20260902132403 | 80 | 228 | 2.0 | 5.0 | 0.00 | 0.00 | 0.00 | 90 | 1009.2 |
| 20260902132306 | 80 | 186 | 1.0 | 5.0 | 0.00 | 0.00 | 0.00 | 90 | 1009.3 |
| 20260902132203 | 80 | 228 | 2.0 | 5.0 | 0.00 | 0.00 | 0.00 | 91 | 1009.2 |
| 20260902132103 | 80 | 219 | 2.0 | 5.0 | 0.00 | 0.00 | 0.00 | 91 | 1009.2 |
| 20260902132004 | 80 | 212 | 2.0 | 5.0 | 0.00 | 0.00 | 0.00 | 91 | 1009.3 |
| 20260902131902 | 80 | 213 | 2.0 | 5.0 | 0.00 | 0.00 | 0.00 | 91 | 1009.2 |
| 20260902131803 | 80 | 210 | 3.0 | 5.0 | 0.00 | 0.00 | 0.00 | 91 | 1009.3 |
| 20260902131704 | 80 | 231 | 3.0 | 5.0 | 0.00 | 0.00 | 0.00 | 91 | 1009.1 |
| 20260902131603 | 80 | 210 | 3.0 | 6.0 | 0.00 | 0.00 | 0.00 | 91 | 1009.1 |
| 20260902131504 | 80 | 207 | 3.0 | 6.0 | 0.00 | 0.00 | 0.00 | 91 | 1009.1 |
| 20260902131403 | 80 | 243 | 2.0 | 6.0 | 0.00 | 0.00 | 0.00 | 91 | 1009.1 |
| 20260902131303 | 80 | 220 | 2.0 | 6.0 | 0.00 | 0.00 | 0.00 | 91 | 1009.1 |
| 20260902131202 | 80 | 217 | 2.0 | 6.0 | 0.00 | 0.00 | 0.00 | 91 | 1009.0 |
| 20260902131102 | 80 | 203 | 2.0 | 6.0 | 0.00 | 0.00 | 0.00 | 91 | 1009.1 |
| 20260902131003 | 80 | 231 | 2.0 | 6.0 | 0.00 | 0.00 | 0.00 | 91 | 1009.1 |
| 20260902130903 | 80 | 228 | 1.0 | 6.0 | 0.00 | 0.00 | 0.00 | 91 | 1009.1 |
| 20260902130802 | 80 | 227 | 2.0 | 6.0 | 0.00 | 0.00 | 0.00 | 91 | 1009.0 |
| 20260902130703 | 80 | 226 | 4.0 | 6.0 | 0.00 | 0.00 | 0.00 | 91 | 1009.1 |
| 20260902130601 | 80 | 235 | 2.0 | 6.0 | 0.00 | 0.00 | 0.00 | 91 | 1009.0 |
| 20260902130503 | 80 | 224 | 1.0 | 5.0 | 0.00 | 0.00 | 0.00 | 91 | 1009.0 |
| 20260902130402 | 80 | 224 | 2.0 | 5.0 | 0.00 | 0.00 | 0.00 | 91 | 1009.0 |
| 20260902130300 | 80 | 221 | 3.0 | 5.0 | 0.00 | 0.00 | 0.00 | 91 | 1008.9 |
| 20260902130157 | 80 | 247 | 2.0 | 5.0 | 0.00 | 0.00 | 0.00 | 91 | 1009.0 |
| 20260902130047 | 80 | 230 | 2.0 | 4.0 | 0.00 | 0.00 | 0.00 | 91 | 1008.9 |
| 20260902125939 | 80 | 233 | 2.0 | 4.0 | 0.00 | 0.00 | 0.00 | 91 | 1008.9 |
| 20260902125832 | 80 | 233 | 2.0 | 4.0 | 0.00 | 0.00 | 0.00 | 91 | 1008.8 |
| 20260902125732 | 80 | 226 | 2.0 | 4.0 | 0.00 | 0.00 | 0.00 | 91 | 1008.9 |
| 20260902125632 | 80 | 219 | 2.0 | 4.0 | 0.00 | 0.00 | 0.00 | 91 | 1008.8 |
| 20260902125531 | 80 | 217 | 2.0 | 4.0 | 0.00 | 0.00 | 0.00 | 91 | 1008.8 |
| 20260902125433 | 80 | 216 | 1.0 | 4.0 | 0.00 | 0.00 | 0.00 | 91 | 1008.8 |
| 20260902125329 | 80 | 213 | 2.0 | 4.0 | 0.00 | 0.00 | 0.00 | 91 | 1008.8 |
| 20260902125229 | 80 | 212 | 2.0 | 4.0 | 0.00 | 0.00 | 0.00 | 91 | 1008.9 |
| 20260902125122 | 80 | 210 | 2.0 | 4.0 | 0.00 | 0.00 | 0.00 | 91 | 1008.8 |
| 20260902125009 | 80 | 217 | 2.0 | 6.0 | 0.00 | 0.00 | 0.00 | 91 | 1008.8 |
| 20260902124903 | 80 | 216 | 2.0 | 6.0 | 0.00 | 0.00 | 0.00 | 91 | 1008.7 |
| 20260902124802 | 80 | 209 | 2.0 | 6.0 | 0.00 | 0.00 | 0.00 | 91 | 1008.6 |
| 20260902124703 | 79 | 202 | 2.0 | 6.0 | 0.00 | 0.00 | 0.00 | 91 | 1008.6 |
| 20260902124603 | 80 | 199 | 1.0 | 6.0 | 0.00 | 0.00 | 0.00 | 91 | 1008.6 |
| 20260902124505 | 80 | 199 | 2.0 | 6.0 | 0.00 | 0.00 | 0.00 | 91 | 1008.6 |
| 20260902124403 | 79 | 197 | 2.0 | 6.0 | 0.00 | 0.00 | 0.00 | 91 | 1008.6 |
| 20260902124303 | 79 | 210 | 3.0 | 6.0 | 0.00 | 0.00 | 0.00 | 91 | 1008.5 |
| 20260902124203 | 79 | 213 | 3.0 | 6.0 | 0.00 | 0.00 | 0.00 | 91 | 1008.5 |
| 20260902124102 | 80 | 241 | 3.0 | 6.0 | 0.00 | 0.00 | 0.00 | 91 | 1008.4 |
| 20260902124003 | 79 | 212 | 2.0 | 6.0 | 0.00 | 0.00 | 0.00 | 91 | 1008.4 |
| 20260902123903 | 79 | 197 | 2.0 | 6.0 | 0.00 | 0.00 | 0.00 | 91 | 1008.4 |
| 20260902123802 | 79 | 231 | 1.0 | 6.0 | 0.00 | 0.00 | 0.00 | 91 | 1008.4 |
| 20260902123703 | 79 | 227 | 2.0 | 6.0 | 0.00 | 0.00 | 0.00 | 91 | 1008.3 |
| 20260902123603 | 79 | 228 | 2.0 | 6.0 | 0.00 | 0.00 | 0.00 | 91 | 1008.4 |
| 20260902123504 | 79 | 226 | 3.0 | 6.0 | 0.00 | 0.00 | 0.00 | 91 | 1008.3 |
| 20260902123402 | 79 | 224 | 2.0 | 6.0 | 0.00 | 0.00 | 0.00 | 91 | 1008.4 |
| 20260902123303 | 79 | 220 | 1.0 | 6.0 | 0.00 | 0.00 | 0.00 | 91 | 1008.3 |
| 20260902123202 | 79 | 220 | 2.0 | 6.0 | 0.00 | 0.00 | 0.00 | 91 | 1008.3 |
| 20260902123104 | 79 | 216 | 2.0 | 6.0 | 0.00 | 0.00 | 0.00 | 91 | 1008.3 |
| 20260902123004 | 79 | 214 | 2.0 | 6.0 | 0.00 | 0.00 | 0.00 | 91 | 1008.3 |
| 20260902122902 | 79 | 210 | 2.0 | 6.0 | 0.00 | 0.00 | 0.00 | 91 | 1008.2 |
| 20260902122802 | 79 | 216 | 3.0 | 6.0 | 0.00 | 0.00 | 0.00 | 91 | 1008.2 |
| 20260902122702 | 79 | 248 | 2.0 | 6.0 | 0.00 | 0.00 | 0.00 | 91 | 1008.1 |
| 20260902122603 | 79 | 217 | 1.0 | 4.0 | 0.00 | 0.00 | 0.00 | 91 | 1008.1 |
| 20260902122504 | 79 | 221 | 1.0 | 4.0 | 0.00 | 0.00 | 0.00 | 91 | 1008.1 |
| 20260902122402 | 79 | 217 | 1.0 | 3.0 | 0.00 | 0.00 | 0.00 | 91 | 1008.0 |
| 20260902122305 | 79 | 219 | 1.0 | 3.0 | 0.00 | 0.00 | 0.00 | 91 | 1008.0 |
| 20260902122202 | 79 | 219 | 1.0 | 3.0 | 0.00 | 0.00 | 0.00 | 91 | 1008.0 |
| 20260902122102 | 79 | 214 | 1.0 | 4.0 | 0.00 | 0.00 | 0.00 | 91 | 1007.9 |
| 20260902122003 | 79 | 214 | 2.0 | 4.0 | 0.00 | 0.00 | 0.00 | 91 | 1007.9 |
| 20260902121903 | 79 | 212 | 2.0 | 4.0 | 0.00 | 0.00 | 0.00 | 91 | 1007.9 |
| 20260902121802 | 79 | 221 | 2.0 | 4.0 | 0.00 | 0.00 | 0.00 | 91 | 1007.9 |
| 20260902121703 | 79 | 220 | 2.0 | 4.0 | 0.00 | 0.00 | 0.00 | 91 | 1007.9 |
| 20260902121602 | 79 | 202 | 1.0 | 4.0 | 0.00 | 0.00 | 0.00 | 91 | 1007.8 |
| 20260902121504 | 79 | 200 | 2.0 | 4.0 | 0.00 | 0.00 | 0.00 | 91 | 1007.8 |
| 20260902121402 | 79 | 199 | 2.0 | 4.0 | 0.00 | 0.00 | 0.00 | 91 | 1007.9 |
| 20260902121302 | 79 | 213 | 3.0 | 4.0 | 0.00 | 0.00 | 0.00 | 91 | 1007.8 |
| 20260902121202 | 79 | 214 | 2.0 | 4.0 | 0.00 | 0.00 | 0.00 | 91 | 1007.8 |
| 20260902121104 | 79 | 224 | 2.0 | 4.0 | 0.00 | 0.00 | 0.00 | 91 | 1007.9 |
| 20260902121004 | 79 | 226 | 2.0 | 4.0 | 0.00 | 0.00 | 0.00 | 91 | 1007.8 |
| 20260902120903 | 79 | 224 | 1.0 | 4.0 | 0.00 | 0.00 | 0.00 | 91 | 1007.7 |
| 20260902120803 | 79 | 223 | 2.0 | 4.0 | 0.00 | 0.00 | 0.00 | 91 | 1007.7 |
| 20260902120702 | 79 | 223 | 2.0 | 5.0 | 0.00 | 0.00 | 0.00 | 91 | 1007.7 |
| 20260902120602 | 79 | 226 | 1.0 | 5.0 | 0.00 | 0.00 | 0.00 | 91 | 1007.7 |
| 20260902120502 | 79 | 226 | 2.0 | 5.0 | 0.00 | 0.00 | 0.00 | 91 | 1007.8 |
| 20260902120402 | 79 | 227 | 2.0 | 5.0 | 0.00 | 0.00 | 0.00 | 91 | 1007.8 |
| 20260902120302 | 79 | 220 | 2.0 | 5.0 | 0.00 | 0.00 | 0.00 | 91 | 1007.7 |
| 20260902120201 | 79 | 227 | 2.0 | 5.0 | 0.00 | 0.00 | 0.00 | 91 | 1007.8 |
| 20260902120002 | 79 | 219 | 2.0 | 5.0 | 0.00 | 0.00 | 0.00 | 91 | 1007.8 |
| 20260902115905 | 79 | 212 | 2.0 | 5.0 | 0.00 | 0.00 | 0.00 | 91 | 1007.8 |
| 20260902115802 | 79 | 214 | 2.0 | 5.0 | 0.00 | 0.00 | 0.00 | 91 | 1007.8 |
| 20260902115703 | 79 | 224 | 2.0 | 4.0 | 0.00 | 0.00 | 0.00 | 91 | 1007.9 |
| 20260902115602 | 79 | 231 | 2.0 | 4.0 | 0.00 | 0.00 | 0.00 | 91 | 1007.9 |
| 20260902115502 | 79 | 234 | 2.0 | 4.0 | 0.00 | 0.00 | 0.00 | 91 | 1007.9 |
| 20260902115402 | 79 | 221 | 2.0 | 4.0 | 0.00 | 0.00 | 0.00 | 91 | 1007.9 |
| 20260902115306 | 79 | 223 | 2.0 | 4.0 | 0.00 | 0.00 | 0.00 | 91 | 1007.8 |
| 20260902115204 | 79 | 221 | 2.0 | 3.0 | 0.00 | 0.00 | 0.00 | 91 | 1007.9 |
| 20260902115103 | 79 | 217 | 2.0 | 3.0 | 0.00 | 0.00 | 0.00 | 91 | 1007.9 |
| 20260902115002 | 79 | 217 | 2.0 | 3.0 | 0.00 | 0.00 | 0.00 | 91 | 1007.9 |
| 20260902114902 | 79 | 216 | 2.0 | 4.0 | 0.00 | 0.00 | 0.00 | 91 | 1007.9 |
| 20260902114803 | 79 | 216 | 2.0 | 4.0 | 0.00 | 0.00 | 0.00 | 91 | 1007.8 |
| 20260902114703 | 79 | 216 | 2.0 | 4.0 | 0.00 | 0.00 | 0.00 | 91 | 1007.9 |
| 20260902114602 | 79 | 216 | 2.0 | 4.0 | 0.00 | 0.00 | 0.00 | 91 | 1007.8 |
| 20260902114503 | 79 | 216 | 2.0 | 4.0 | 0.00 | 0.00 | 0.00 | 91 | 1007.9 |
| 20260902114401 | 79 | 216 | 2.0 | 4.0 | 0.00 | 0.00 | 0.00 | 91 | 1007.9 |
| 20260902114301 | 79 | 216 | 2.0 | 4.0 | 0.00 | 0.00 | 0.00 | 91 | 1007.9 |
| 20260902114204 | 79 | 212 | 2.0 | 4.0 | 0.00 | 0.00 | 0.00 | 91 | 1007.9 |
| 20260902114103 | 79 | 216 | 2.0 | 4.0 | 0.00 | 0.00 | 0.00 | 91 | 1007.9 |
| 20260902114005 | 79 | 203 | 2.0 | 4.0 | 0.00 | 0.00 | 0.00 | 91 | 1007.9 |
| 20260902113902 | 79 | 217 | 2.0 | 4.0 | 0.00 | 0.00 | 0.00 | 91 | 1007.9 |
| 20260902113801 | 79 | 226 | 2.0 | 3.0 | 0.00 | 0.00 | 0.00 | 91 | 1007.9 |
| 20260902113702 | 79 | 224 | 2.0 | 3.0 | 0.00 | 0.00 | 0.00 | 90 | 1007.9 |
| 20260902113602 | 79 | 220 | 2.0 | 3.0 | 0.00 | 0.00 | 0.00 | 90 | 1007.9 |
| 20260902113502 | 79 | 220 | 1.0 | 3.0 | 0.00 | 0.00 | 0.00 | 90 | 1008.0 |
| 20260902113403 | 79 | 219 | 1.0 | 3.0 | 0.00 | 0.00 | 0.00 | 90 | 1007.9 |
| 20260902113304 | 79 | 219 | 0.0 | 3.0 | 0.00 | 0.00 | 0.00 | 90 | 1008.0 |
| 20260902113203 | 79 | 214 | 1.0 | 5.0 | 0.00 | 0.00 | 0.00 | 90 | 1008.0 |
| 20260902113102 | 79 | 214 | 1.0 | 5.0 | 0.00 | 0.00 | 0.00 | 90 | 1008.0 |
| 20260902113002 | 79 | 214 | 1.0 | 5.0 | 0.00 | 0.00 | 0.00 | 90 | 1008.0 |
| 20260902112902 | 79 | 224 | 1.0 | 5.0 | 0.00 | 0.00 | 0.00 | 90 | 1008.0 |
| 20260902112804 | 79 | 230 | 1.0 | 5.0 | 0.00 | 0.00 | 0.00 | 90 | 1007.9 |
| 20260902112702 | 79 | 234 | 1.0 | 5.0 | 0.00 | 0.00 | 0.00 | 90 | 1008.0 |
| 20260902112604 | 79 | 234 | 2.0 | 5.0 | 0.00 | 0.00 | 0.00 | 90 | 1007.9 |
| 20260902112502 | 79 | 233 | 2.0 | 5.0 | 0.00 | 0.00 | 0.00 | 90 | 1008.0 |
| 20260902112402 | 79 | 243 | 2.0 | 5.0 | 0.00 | 0.00 | 0.00 | 90 | 1007.9 |
| 20260902112305 | 79 | 243 | 4.0 | 5.0 | 0.00 | 0.00 | 0.00 | 90 | 1007.9 |
| 20260902112203 | 79 | 257 | 4.0 | 5.0 | 0.00 | 0.00 | 0.00 | 90 | 1007.9 |
| 20260902112102 | 79 | 226 | 1.0 | 3.0 | 0.00 | 0.00 | 0.00 | 90 | 1007.9 |
| 20260902112002 | 79 | 226 | 2.0 | 3.0 | 0.00 | 0.00 | 0.00 | 90 | 1007.9 |
| 20260902111859 | 79 | 226 | 2.0 | 3.0 | 0.00 | 0.00 | 0.00 | 90 | 1007.9 |
| 20260902111758 | 79 | 224 | 2.0 | 3.0 | 0.00 | 0.00 | 0.00 | 90 | 1007.9 |
| 20260902111659 | 79 | 228 | 2.0 | 3.0 | 0.00 | 0.00 | 0.00 | 90 | 1007.9 |
| 20260902111559 | 79 | 230 | 1.0 | 3.0 | 0.00 | 0.00 | 0.00 | 90 | 1007.9 |
| 20260902111458 | 79 | 200 | 1.0 | 3.0 | 0.00 | 0.00 | 0.00 | 90 | 1007.9 |
| 20260902111359 | 79 | 216 | 1.0 | 3.0 | 0.00 | 0.00 | 0.00 | 90 | 1007.9 |
| 20260902111300 | 79 | 216 | 1.0 | 3.0 | 0.00 | 0.00 | 0.00 | 90 | 1007.9 |
| 20260902111158 | 79 | 214 | 1.0 | 3.0 | 0.00 | 0.00 | 0.00 | 90 | 1007.9 |
| 20260902111058 | 79 | 214 | 1.0 | 3.0 | 0.00 | 0.00 | 0.00 | 90 | 1007.9 |
| 20260902110957 | 79 | 213 | 2.0 | 3.0 | 0.00 | 0.00 | 0.00 | 90 | 1007.9 |
| 20260902110859 | 79 | 207 | 1.0 | 3.0 | 0.00 | 0.00 | 0.00 | 90 | 1007.9 |
| 20260902110759 | 79 | 207 | 1.0 | 3.0 | 0.00 | 0.00 | 0.00 | 90 | 1007.7 |
| 20260902110658 | 79 | 207 | 1.0 | 3.0 | 0.00 | 0.00 | 0.00 | 90 | 1007.8 |
| 20260902110558 | 79 | 206 | 0.0 | 3.0 | 0.00 | 0.00 | 0.00 | 90 | 1007.8 |
| 20260902110500 | 79 | 206 | 0.0 | 3.0 | 0.00 | 0.00 | 0.00 | 90 | 1007.8 |
| 20260902110359 | 79 | 206 | 1.0 | 3.0 | 0.00 | 0.00 | 0.00 | 90 | 1007.8 |
| 20260902110258 | 79 | 219 | 1.0 | 3.0 | 0.00 | 0.00 | 0.00 | 90 | 1007.8 |
| 20260902110158 | 79 | 219 | 1.0 | 3.0 | 0.00 | 0.00 | 0.00 | 90 | 1007.8 |
| 20260902110057 | 79 | 223 | 2.0 | 3.0 | 0.00 | 0.00 | 0.00 | 90 | 1007.8 |
| 20260902105957 | 79 | 226 | 1.0 | 3.0 | 0.00 | 0.00 | 0.00 | 90 | 1007.8 |
| 20260902105859 | 79 | 224 | 1.0 | 3.0 | 0.00 | 0.00 | 0.00 | 90 | 1007.9 |
| 20260902105757 | 79 | 224 | 1.0 | 3.0 | 0.00 | 0.00 | 0.00 | 90 | 1007.9 |
| 20260902105658 | 79 | 224 | 1.0 | 3.0 | 0.00 | 0.00 | 0.00 | 90 | 1007.8 |
| 20260902105558 | 79 | 237 | 1.0 | 2.0 | 0.00 | 0.00 | 0.00 | 90 | 1007.8 |
| 20260902105454 | 79 | 237 | 1.0 | 2.0 | 0.00 | 0.00 | 0.00 | 90 | 1007.9 |
| 20260902105349 | 79 | 243 | 1.0 | 3.0 | 0.00 | 0.00 | 0.00 | 90 | 1007.9 |
| 20260902105249 | 79 | 244 | 1.0 | 3.0 | 0.00 | 0.00 | 0.00 | 90 | 1007.9 |
| 20260902105146 | 79 | 244 | 1.0 | 3.0 | 0.00 | 0.00 | 0.00 | 90 | 1007.9 |
| 20260902105041 | 79 | 248 | 1.0 | 3.0 | 0.00 | 0.00 | 0.00 | 90 | 1008.0 |
| 20260902104932 | 79 | 250 | 1.0 | 3.0 | 0.00 | 0.00 | 0.00 | 90 | 1008.0 |
| 20260902104832 | 79 | 250 | 1.0 | 3.0 | 0.00 | 0.00 | 0.00 | 90 | 1007.9 |
| 20260902104730 | 79 | 251 | 1.0 | 3.0 | 0.00 | 0.00 | 0.00 | 90 | 1008.0 |
| 20260902104631 | 79 | 252 | 1.0 | 3.0 | 0.00 | 0.00 | 0.00 | 90 | 1007.9 |
| 20260902104531 | 79 | 252 | 2.0 | 4.0 | 0.00 | 0.00 | 0.00 | 90 | 1007.9 |
| 20260902104432 | 79 | 252 | 2.0 | 4.0 | 0.00 | 0.00 | 0.00 | 90 | 1007.9 |
| 20260902104331 | 79 | 252 | 2.0 | 4.0 | 0.00 | 0.00 | 0.00 | 90 | 1007.9 |
| 20260902104232 | 79 | 251 | 2.0 | 4.0 | 0.00 | 0.00 | 0.00 | 90 | 1007.9 |
| 20260902104132 | 79 | 252 | 2.0 | 4.0 | 0.00 | 0.00 | 0.00 | 90 | 1007.9 |
| 20260902104032 | 79 | 252 | 2.0 | 4.0 | 0.00 | 0.00 | 0.00 | 89 | 1008.0 |
| 20260902103932 | 79 | 252 | 2.0 | 4.0 | 0.00 | 0.00 | 0.00 | 89 | 1007.9 |
| 20260902103832 | 79 | 251 | 2.0 | 4.0 | 0.00 | 0.00 | 0.00 | 89 | 1008.0 |
| 20260902103733 | 79 | 251 | 2.0 | 4.0 | 0.00 | 0.00 | 0.00 | 89 | 1008.0 |
| 20260902103631 | 79 | 251 | 2.0 | 4.0 | 0.00 | 0.00 | 0.00 | 89 | 1007.9 |
| 20260902103532 | 79 | 251 | 2.0 | 4.0 | 0.00 | 0.00 | 0.00 | 89 | 1008.0 |
| 20260902103432 | 79 | 250 | 2.0 | 3.0 | 0.00 | 0.00 | 0.00 | 89 | 1007.9 |
| 20260902103331 | 79 | 248 | 2.0 | 3.0 | 0.00 | 0.00 | 0.00 | 89 | 1008.0 |
| 20260902103233 | 79 | 245 | 2.0 | 3.0 | 0.00 | 0.00 | 0.00 | 89 | 1008.0 |
| 20260902103131 | 79 | 245 | 2.0 | 3.0 | 0.00 | 0.00 | 0.00 | 89 | 1008.0 |
| 20260902103032 | 79 | 245 | 1.0 | 3.0 | 0.00 | 0.00 | 0.00 | 89 | 1007.9 |
| 20260902102933 | 79 | 245 | 2.0 | 4.0 | 0.00 | 0.00 | 0.00 | 89 | 1007.9 |
| 20260902102831 | 79 | 244 | 2.0 | 4.0 | 0.00 | 0.00 | 0.00 | 89 | 1007.9 |
| 20260902102732 | 79 | 244 | 2.0 | 4.0 | 0.00 | 0.00 | 0.00 | 89 | 1007.9 |
| 20260902102619 | 79 | 244 | 2.0 | 4.0 | 0.00 | 0.00 | 0.00 | 89 | 1008.0 |
| 20260902102519 | 80 | 243 | 2.0 | 4.0 | 0.00 | 0.00 | 0.00 | 89 | 1007.9 |
| 20260902102417 | 80 | 243 | 2.0 | 4.0 | 0.00 | 0.00 | 0.00 | 89 | 1007.9 |
| 20260902102310 | 80 | 243 | 2.0 | 4.0 | 0.00 | 0.00 | 0.00 | 89 | 1007.9 |
| 20260902102210 | 80 | 243 | 2.0 | 4.0 | 0.00 | 0.00 | 0.00 | 89 | 1007.9 |
| 20260902102106 | 80 | 243 | 2.0 | 4.0 | 0.00 | 0.00 | 0.00 | 89 | 1007.9 |
| 20260902102003 | 80 | 243 | 2.0 | 4.0 | 0.00 | 0.00 | 0.00 | 89 | 1007.9 |
| 20260902101904 | 80 | 241 | 2.0 | 4.0 | 0.00 | 0.00 | 0.00 | 89 | 1007.8 |
| 20260902101804 | 80 | 241 | 2.0 | 4.0 | 0.00 | 0.00 | 0.00 | 89 | 1007.8 |
| 20260902101703 | 80 | 240 | 2.0 | 4.0 | 0.00 | 0.00 | 0.00 | 89 | 1007.8 |
| 20260902101604 | 80 | 238 | 2.0 | 4.0 | 0.00 | 0.00 | 0.00 | 89 | 1007.9 |
| 20260902101504 | 80 | 238 | 2.0 | 4.0 | 0.00 | 0.00 | 0.00 | 89 | 1007.7 |
| 20260902101404 | 80 | 238 | 1.0 | 4.0 | 0.00 | 0.00 | 0.00 | 89 | 1007.7 |
| 20260902101303 | 80 | 235 | 2.0 | 4.0 | 0.00 | 0.00 | 0.00 | 89 | 1007.7 |
| 20260902101202 | 80 | 235 | 2.0 | 4.0 | 0.00 | 0.00 | 0.00 | 89 | 1007.6 |
| 20260902101104 | 80 | 217 | 0.0 | 3.0 | 0.00 | 0.00 | 0.00 | 89 | 1007.6 |
| 20260902101002 | 80 | 217 | 1.0 | 3.0 | 0.00 | 0.00 | 0.00 | 89 | 1007.7 |
| 20260902100904 | 80 | 217 | 1.0 | 3.0 | 0.00 | 0.00 | 0.00 | 89 | 1007.7 |
| 20260902100804 | 80 | 217 | 1.0 | 3.0 | 0.00 | 0.00 | 0.00 | 89 | 1007.6 |
| 20260902100702 | 80 | 219 | 1.0 | 3.0 | 0.00 | 0.00 | 0.00 | 89 | 1007.7 |
| 20260902100604 | 80 | 219 | 1.0 | 3.0 | 0.00 | 0.00 | 0.00 | 89 | 1007.6 |
| 20260902100504 | 80 | 219 | 1.0 | 3.0 | 0.00 | 0.00 | 0.00 | 89 | 1007.7 |
| 20260902100404 | 80 | 219 | 1.0 | 3.0 | 0.00 | 0.00 | 0.00 | 89 | 1007.6 |
| 20260902100304 | 80 | 217 | 1.0 | 3.0 | 0.00 | 0.00 | 0.00 | 89 | 1007.7 |
| 20260902100202 | 80 | 217 | 1.0 | 3.0 | 0.00 | 0.00 | 0.00 | 89 | 1007.6 |
| 20260902100003 | 80 | 206 | 1.0 | 3.0 | 0.00 | 0.00 | 0.00 | 89 | 1007.6 |
| 20260902095903 | 80 | 206 | 1.0 | 3.0 | 0.00 | 0.00 | 0.00 | 89 | 1007.7 |
| 20260902095804 | 80 | 207 | 0.0 | 3.0 | 0.00 | 0.00 | 0.00 | 89 | 1007.6 |
| 20260902095703 | 80 | 207 | 0.0 | 3.0 | 0.00 | 0.00 | 0.00 | 89 | 1007.7 |
| 20260902095604 | 80 | 207 | 1.0 | 3.0 | 0.00 | 0.00 | 0.00 | 89 | 1007.7 |
| 20260902095504 | 80 | 209 | 1.0 | 3.0 | 0.00 | 0.00 | 0.00 | 89 | 1007.7 |
| 20260902095402 | 80 | 206 | 0.0 | 3.0 | 0.00 | 0.00 | 0.00 | 89 | 1007.6 |
| 20260902095306 | 80 | 207 | 0.0 | 3.0 | 0.00 | 0.00 | 0.00 | 88 | 1007.6 |
| 20260902095204 | 80 | 207 | 0.0 | 3.0 | 0.00 | 0.00 | 0.00 | 88 | 1007.7 |
| 20260902095102 | 80 | 207 | 1.0 | 3.0 | 0.00 | 0.00 | 0.00 | 88 | 1007.7 |
| 20260902095005 | 80 | 209 | 1.0 | 4.0 | 0.00 | 0.00 | 0.00 | 88 | 1007.7 |
| 20260902094902 | 80 | 207 | 1.0 | 4.0 | 0.00 | 0.00 | 0.00 | 88 | 1007.7 |
| 20260902094802 | 80 | 219 | 1.0 | 4.0 | 0.00 | 0.00 | 0.00 | 88 | 1007.7 |
| 20260902094704 | 80 | 219 | 2.0 | 4.0 | 0.00 | 0.00 | 0.00 | 88 | 1007.7 |
| 20260902094603 | 80 | 212 | 1.0 | 4.0 | 0.00 | 0.00 | 0.00 | 88 | 1007.7 |
| 20260902094502 | 80 | 210 | 2.0 | 4.0 | 0.00 | 0.00 | 0.00 | 88 | 1007.7 |
| 20260902094403 | 80 | 214 | 1.0 | 4.0 | 0.00 | 0.00 | 0.00 | 88 | 1007.7 |
| 20260902094303 | 80 | 216 | 1.0 | 5.0 | 0.00 | 0.00 | 0.00 | 88 | 1007.7 |
| 20260902094203 | 80 | 217 | 1.0 | 5.0 | 0.00 | 0.00 | 0.00 | 88 | 1007.7 |
| 20260902094102 | 80 | 223 | 2.0 | 5.0 | 0.00 | 0.00 | 0.00 | 88 | 1007.7 |
| 20260902094003 | 80 | 206 | 1.0 | 5.0 | 0.00 | 0.00 | 0.00 | 88 | 1007.8 |
| 20260902093903 | 80 | 203 | 1.0 | 5.0 | 0.00 | 0.00 | 0.00 | 88 | 1007.7 |
| 20260902093804 | 80 | 207 | 1.0 | 5.0 | 0.00 | 0.00 | 0.00 | 88 | 1007.7 |
| 20260902093704 | 80 | 213 | 1.0 | 5.0 | 0.00 | 0.00 | 0.00 | 88 | 1007.7 |
| 20260902093603 | 80 | 213 | 1.0 | 5.0 | 0.00 | 0.00 | 0.00 | 88 | 1007.7 |
| 20260902093503 | 80 | 213 | 1.0 | 5.0 | 0.00 | 0.00 | 0.00 | 88 | 1007.6 |
| 20260902093402 | 80 | 213 | 1.0 | 5.0 | 0.00 | 0.00 | 0.00 | 88 | 1007.6 |
| 20260902093303 | 80 | 221 | 0.0 | 3.0 | 0.00 | 0.00 | 0.00 | 88 | 1007.7 |
| 20260902093202 | 80 | 221 | 1.0 | 3.0 | 0.00 | 0.00 | 0.00 | 88 | 1007.6 |
| 20260902093103 | 80 | 221 | 1.0 | 3.0 | 0.00 | 0.00 | 0.00 | 88 | 1007.7 |
| 20260902093004 | 80 | 220 | 1.0 | 3.0 | 0.00 | 0.00 | 0.00 | 88 | 1007.8 |
| 20260902092903 | 80 | 220 | 1.0 | 3.0 | 0.00 | 0.00 | 0.00 | 88 | 1007.7 |
| 20260902092803 | 80 | 221 | 1.0 | 3.0 | 0.00 | 0.00 | 0.00 | 88 | 1007.8 |
| 20260902092702 | 80 | 221 | 1.0 | 3.0 | 0.00 | 0.00 | 0.00 | 88 | 1007.8 |
| 20260902092603 | 80 | 221 | 2.0 | 3.0 | 0.00 | 0.00 | 0.00 | 88 | 1007.8 |
| 20260902092503 | 80 | 220 | 2.0 | 3.0 | 0.00 | 0.00 | 0.00 | 88 | 1007.8 |
| 20260902092403 | 80 | 220 | 1.0 | 3.0 | 0.00 | 0.00 | 0.00 | 88 | 1007.9 |
| 20260902092305 | 80 | 219 | 0.0 | 3.0 | 0.00 | 0.00 | 0.00 | 88 | 1007.9 |
| 20260902092204 | 80 | 219 | 1.0 | 3.0 | 0.00 | 0.00 | 0.00 | 88 | 1007.8 |
| 20260902092103 | 80 | 219 | 1.0 | 3.0 | 0.00 | 0.00 | 0.00 | 88 | 1007.8 |
| 20260902092004 | 80 | 219 | 1.0 | 3.0 | 0.00 | 0.00 | 0.00 | 88 | 1007.9 |
| 20260902091902 | 80 | 231 | 1.0 | 4.0 | 0.00 | 0.00 | 0.00 | 88 | 1007.8 |
| 20260902091803 | 80 | 231 | 1.0 | 4.0 | 0.00 | 0.00 | 0.00 | 88 | 1007.8 |
| 20260902091702 | 80 | 231 | 1.0 | 4.0 | 0.00 | 0.00 | 0.00 | 88 | 1007.8 |
| 20260902091604 | 80 | 231 | 2.0 | 4.0 | 0.00 | 0.00 | 0.00 | 87 | 1007.8 |
| 20260902091503 | 80 | 230 | 1.0 | 4.0 | 0.00 | 0.00 | 0.00 | 87 | 1007.8 |
| 20260902091403 | 80 | 231 | 1.0 | 4.0 | 0.00 | 0.00 | 0.00 | 87 | 1007.8 |
| 20260902091303 | 80 | 231 | 1.0 | 4.0 | 0.00 | 0.00 | 0.00 | 87 | 1007.8 |
| 20260902091203 | 80 | 233 | 1.0 | 5.0 | 0.00 | 0.00 | 0.00 | 87 | 1007.8 |
| 20260902091104 | 80 | 231 | 1.0 | 5.0 | 0.00 | 0.00 | 0.00 | 87 | 1007.8 |
| 20260902091005 | 80 | 231 | 2.0 | 5.0 | 0.00 | 0.00 | 0.00 | 87 | 1007.8 |
| 20260902090903 | 80 | 244 | 2.0 | 5.0 | 0.00 | 0.00 | 0.00 | 87 | 1007.9 |
| 20260902090803 | 80 | 252 | 2.0 | 5.0 | 0.00 | 0.00 | 0.00 | 87 | 1007.8 |
| 20260902090702 | 80 | 235 | 1.0 | 5.0 | 0.00 | 0.00 | 0.00 | 87 | 1007.8 |
| 20260902090602 | 80 | 235 | 2.0 | 5.0 | 0.00 | 0.00 | 0.00 | 87 | 1007.8 |
| 20260902090504 | 80 | 237 | 2.0 | 5.0 | 0.00 | 0.00 | 0.00 | 87 | 1007.7 |
| 20260902090405 | 80 | 231 | 2.0 | 5.0 | 0.00 | 0.00 | 0.00 | 87 | 1007.7 |
| 20260902090303 | 80 | 243 | 3.0 | 5.0 | 0.00 | 0.00 | 0.00 | 87 | 1007.7 |
| 20260902090202 | 80 | 240 | 2.0 | 4.0 | 0.00 | 0.00 | 0.00 | 87 | 1007.7 |
| 20260902090104 | 80 | 213 | 1.0 | 4.0 | 0.00 | 0.00 | 0.00 | 87 | 1007.7 |
| 20260902090005 | 80 | 213 | 1.0 | 4.0 | 0.00 | 0.00 | 0.00 | 87 | 1007.7 |
| 20260902085903 | 80 | 223 | 1.0 | 4.0 | 0.00 | 0.00 | 0.00 | 87 | 1007.7 |
| 20260902085804 | 80 | 223 | 2.0 | 4.0 | 0.00 | 0.00 | 0.00 | 87 | 1007.7 |
| 20260902085703 | 80 | 221 | 2.0 | 4.0 | 0.00 | 0.00 | 0.00 | 87 | 1007.7 |
| 20260902085603 | 80 | 202 | 1.0 | 3.0 | 0.00 | 0.00 | 0.00 | 87 | 1007.7 |
| 20260902085502 | 80 | 203 | 0.0 | 3.0 | 0.00 | 0.00 | 0.00 | 87 | 1007.7 |
| 20260902085403 | 80 | 202 | 1.0 | 3.0 | 0.00 | 0.00 | 0.00 | 87 | 1007.6 |
| 20260902085306 | 80 | 202 | 1.0 | 3.0 | 0.00 | 0.00 | 0.00 | 87 | 1007.7 |
| 20260902085202 | 80 | 203 | 1.0 | 3.0 | 0.00 | 0.00 | 0.00 | 87 | 1007.6 |
| 20260902085103 | 80 | 203 | 1.0 | 3.0 | 0.00 | 0.00 | 0.00 | 87 | 1007.6 |
| 20260902085004 | 80 | 202 | 1.0 | 3.0 | 0.00 | 0.00 | 0.00 | 87 | 1007.6 |
| 20260902084903 | 80 | 203 | 1.0 | 4.0 | 0.00 | 0.00 | 0.00 | 87 | 1007.6 |
| 20260902084803 | 80 | 203 | 0.0 | 4.0 | 0.00 | 0.00 | 0.00 | 87 | 1007.6 |
| 20260902084703 | 80 | 226 | 2.0 | 4.0 | 0.00 | 0.00 | 0.00 | 87 | 1007.5 |
| 20260902084603 | 80 | 226 | 2.0 | 4.0 | 0.00 | 0.00 | 0.00 | 87 | 1007.7 |
| 20260902084503 | 80 | 224 | 2.0 | 4.0 | 0.00 | 0.00 | 0.00 | 87 | 1007.6 |
| 20260902084403 | 80 | 226 | 1.0 | 4.0 | 0.00 | 0.00 | 0.00 | 87 | 1007.6 |
| 20260902084302 | 80 | 210 | 1.0 | 4.0 | 0.00 | 0.00 | 0.00 | 87 | 1007.6 |
| 20260902084202 | 80 | 210 | 1.0 | 4.0 | 0.00 | 0.00 | 0.00 | 87 | 1007.7 |
| 20260902084104 | 80 | 210 | 2.0 | 4.0 | 0.00 | 0.00 | 0.00 | 87 | 1007.6 |
| 20260902084004 | 80 | 209 | 1.0 | 4.0 | 0.00 | 0.00 | 0.00 | 87 | 1007.7 |
| 20260902083902 | 80 | 210 | 0.0 | 6.0 | 0.00 | 0.00 | 0.00 | 87 | 1007.7 |
| 20260902083802 | 80 | 210 | 0.0 | 6.0 | 0.00 | 0.00 | 0.00 | 87 | 1007.7 |
| 20260902083702 | 80 | 210 | 0.0 | 7.0 | 0.00 | 0.00 | 0.00 | 87 | 1007.7 |
| 20260902083603 | 80 | 210 | 1.0 | 7.0 | 0.00 | 0.00 | 0.00 | 87 | 1007.7 |
| 20260902083503 | 80 | 209 | 2.0 | 7.0 | 0.00 | 0.00 | 0.00 | 87 | 1007.7 |
| 20260902083403 | 80 | 269 | 1.0 | 7.0 | 0.00 | 0.00 | 0.00 | 86 | 1007.7 |
| 20260902083303 | 80 | 214 | 1.0 | 7.0 | 0.00 | 0.00 | 0.00 | 86 | 1007.7 |
| 20260902083202 | 80 | 219 | 1.0 | 7.0 | 0.00 | 0.00 | 0.00 | 86 | 1007.7 |
| 20260902083102 | 80 | 219 | 2.0 | 7.0 | 0.00 | 0.00 | 0.00 | 86 | 1007.7 |
| 20260902083005 | 80 | 221 | 2.0 | 7.0 | 0.00 | 0.00 | 0.00 | 86 | 1007.7 |
| 20260902082904 | 80 | 238 | 3.0 | 7.0 | 0.00 | 0.00 | 0.00 | 86 | 1007.7 |
| 20260902082804 | 80 | 241 | 3.0 | 7.0 | 0.00 | 0.00 | 0.00 | 86 | 1007.7 |
| 20260902082703 | 80 | 212 | 2.0 | 5.0 | 0.00 | 0.00 | 0.00 | 86 | 1007.7 |
| 20260902082602 | 80 | 227 | 2.0 | 5.0 | 0.00 | 0.00 | 0.00 | 86 | 1007.7 |
| 20260902082503 | 81 | 210 | 1.0 | 5.0 | 0.00 | 0.00 | 0.00 | 86 | 1007.7 |
| 20260902082403 | 81 | 209 | 1.0 | 5.0 | 0.00 | 0.00 | 0.00 | 86 | 1007.7 |
| 20260902082308 | 81 | 213 | 2.0 | 5.0 | 0.00 | 0.00 | 0.00 | 86 | 1007.7 |
| 20260902082202 | 81 | 204 | 2.0 | 5.0 | 0.00 | 0.00 | 0.00 | 86 | 1007.7 |
| 20260902082104 | 81 | 206 | 2.0 | 5.0 | 0.00 | 0.00 | 0.00 | 86 | 1007.7 |
| 20260902082002 | 81 | 221 | 3.0 | 5.0 | 0.00 | 0.00 | 0.00 | 86 | 1007.7 |
| 20260902081902 | 81 | 206 | 3.0 | 5.0 | 0.00 | 0.00 | 0.00 | 86 | 1007.7 |
| 20260902081803 | 81 | 224 | 3.0 | 5.0 | 0.00 | 0.00 | 0.00 | 86 | 1007.7 |
| 20260902081702 | 81 | 188 | 2.0 | 5.0 | 0.00 | 0.00 | 0.00 | 86 | 1007.7 |
| 20260902081603 | 81 | 223 | 2.0 | 5.0 | 0.00 | 0.00 | 0.00 | 86 | 1007.7 |
| 20260902081504 | 81 | 231 | 2.0 | 6.0 | 0.00 | 0.00 | 0.00 | 86 | 1007.7 |
| 20260902081403 | 81 | 203 | 2.0 | 6.0 | 0.00 | 0.00 | 0.00 | 86 | 1007.7 |
| 20260902081301 | 81 | 220 | 2.0 | 7.0 | 0.00 | 0.00 | 0.00 | 86 | 1007.7 |
| 20260902081202 | 81 | 219 | 2.0 | 7.0 | 0.00 | 0.00 | 0.00 | 85 | 1007.7 |
| 20260902081105 | 81 | 227 | 2.0 | 7.0 | 0.00 | 0.00 | 0.00 | 85 | 1007.7 |
| 20260902081004 | 81 | 228 | 2.0 | 7.0 | 0.00 | 0.00 | 0.00 | 85 | 1007.7 |
| 20260902080902 | 81 | 227 | 2.0 | 7.0 | 0.00 | 0.00 | 0.00 | 85 | 1007.7 |
| 20260902080803 | 81 | 224 | 3.0 | 7.0 | 0.00 | 0.00 | 0.00 | 85 | 1007.7 |
| 20260902080702 | 81 | 226 | 4.0 | 7.0 | 0.00 | 0.00 | 0.00 | 85 | 1007.6 |
| 20260902080604 | 81 | 217 | 4.0 | 7.0 | 0.00 | 0.00 | 0.00 | 85 | 1007.6 |
| 20260902080504 | 81 | 212 | 4.0 | 7.0 | 0.00 | 0.00 | 0.00 | 85 | 1007.6 |
| 20260902080402 | 81 | 231 | 3.0 | 7.0 | 0.00 | 0.00 | 0.00 | 85 | 1007.6 |
| 20260902080303 | 81 | 212 | 2.0 | 5.0 | 0.00 | 0.00 | 0.00 | 85 | 1007.6 |
| 20260902080202 | 81 | 214 | 2.0 | 5.0 | 0.00 | 0.00 | 0.00 | 85 | 1007.6 |
| 20260902080004 | 81 | 209 | 2.0 | 5.0 | 0.00 | 0.00 | 0.00 | 85 | 1007.6 |
| 20260902075902 | 81 | 252 | 2.0 | 5.0 | 0.00 | 0.00 | 0.00 | 84 | 1007.6 |
| 20260902075803 | 81 | 206 | 2.0 | 5.0 | 0.00 | 0.00 | 0.00 | 84 | 1007.7 |
| 20260902075702 | 81 | 231 | 2.0 | 5.0 | 0.00 | 0.00 | 0.00 | 84 | 1007.6 |
| 20260902075604 | 81 | 226 | 3.0 | 5.0 | 0.00 | 0.00 | 0.00 | 84 | 1007.6 |
| 20260902075503 | 81 | 233 | 1.0 | 5.0 | 0.00 | 0.00 | 0.00 | 84 | 1007.6 |
| 20260902075403 | 81 | 223 | 1.0 | 4.0 | 0.00 | 0.00 | 0.00 | 84 | 1007.7 |
| 20260902075306 | 81 | 224 | 1.0 | 4.0 | 0.00 | 0.00 | 0.00 | 84 | 1007.6 |
| 20260902075202 | 81 | 219 | 2.0 | 4.0 | 0.00 | 0.00 | 0.00 | 84 | 1007.6 |
| 20260902075103 | 81 | 216 | 2.0 | 4.0 | 0.00 | 0.00 | 0.00 | 84 | 1007.7 |
| 20260902075003 | 81 | 206 | 2.0 | 4.0 | 0.00 | 0.00 | 0.00 | 83 | 1007.7 |
| 20260902074903 | 81 | 204 | 2.0 | 4.0 | 0.00 | 0.00 | 0.00 | 83 | 1007.7 |
| 20260902074804 | 81 | 237 | 1.0 | 4.0 | 0.00 | 0.00 | 0.00 | 83 | 1007.7 |
| 20260902074702 | 81 | 244 | 2.0 | 4.0 | 0.00 | 0.00 | 0.00 | 83 | 1007.7 |
| 20260902074603 | 81 | 248 | 2.0 | 5.0 | 0.00 | 0.00 | 0.00 | 83 | 1007.7 |
| 20260902074502 | 81 | 234 | 2.0 | 5.0 | 0.00 | 0.00 | 0.00 | 83 | 1007.8 |
| 20260902074404 | 81 | 234 | 2.0 | 6.0 | 0.00 | 0.00 | 0.00 | 83 | 1007.8 |
| 20260902074303 | 81 | 233 | 2.0 | 6.0 | 0.00 | 0.00 | 0.00 | 83 | 1007.8 |
| 20260902074204 | 81 | 234 | 2.0 | 6.0 | 0.00 | 0.00 | 0.00 | 83 | 1007.8 |
| 20260902074103 | 81 | 234 | 2.0 | 6.0 | 0.00 | 0.00 | 0.00 | 83 | 1007.8 |
| 20260902074003 | 81 | 234 | 2.0 | 6.0 | 0.00 | 0.00 | 0.00 | 83 | 1007.8 |
| 20260902073903 | 81 | 244 | 3.0 | 6.0 | 0.00 | 0.00 | 0.00 | 83 | 1007.8 |
| 20260902073802 | 81 | 235 | 4.0 | 6.0 | 0.00 | 0.00 | 0.00 | 83 | 1007.9 |
| 20260902073702 | 81 | 221 | 3.0 | 6.0 | 0.00 | 0.00 | 0.00 | 83 | 1007.8 |
| 20260902073603 | 81 | 226 | 4.0 | 6.0 | 0.00 | 0.00 | 0.00 | 83 | 1007.8 |
| 20260902073503 | 81 | 230 | 3.0 | 6.0 | 0.00 | 0.00 | 0.00 | 83 | 1007.9 |
| 20260902073403 | 81 | 231 | 3.0 | 5.0 | 0.00 | 0.00 | 0.00 | 83 | 1007.9 |
| 20260902073302 | 81 | 227 | 4.0 | 5.0 | 0.00 | 0.00 | 0.00 | 83 | 1007.8 |
| 20260902073202 | 81 | 220 | 4.0 | 5.0 | 0.00 | 0.00 | 0.00 | 83 | 1007.9 |
| 20260902073103 | 81 | 228 | 3.0 | 6.0 | 0.00 | 0.00 | 0.00 | 83 | 1007.9 |
| 20260902073002 | 81 | 216 | 3.0 | 6.0 | 0.00 | 0.00 | 0.00 | 83 | 1007.9 |
| 20260902072903 | 81 | 220 | 3.0 | 6.0 | 0.00 | 0.00 | 0.00 | 83 | 1007.8 |
| 20260902072802 | 81 | 247 | 3.0 | 6.0 | 0.00 | 0.00 | 0.00 | 83 | 1007.9 |
| 20260902072703 | 81 | 217 | 3.0 | 6.0 | 0.00 | 0.00 | 0.00 | 82 | 1007.8 |
| 20260902072601 | 81 | 221 | 3.0 | 6.0 | 0.00 | 0.00 | 0.00 | 82 | 1007.8 |
| 20260902072503 | 81 | 226 | 3.0 | 6.0 | 0.00 | 0.00 | 0.00 | 82 | 1007.7 |
| 20260902072402 | 80 | 212 | 2.0 | 6.0 | 0.00 | 0.00 | 0.00 | 82 | 1007.8 |
| 20260902072308 | 80 | 207 | 2.0 | 6.0 | 0.00 | 0.00 | 0.00 | 82 | 1007.8 |
| 20260902072203 | 80 | 217 | 3.0 | 6.0 | 0.00 | 0.00 | 0.00 | 82 | 1007.7 |
| 20260902072103 | 80 | 206 | 2.0 | 5.0 | 0.00 | 0.00 | 0.00 | 81 | 1007.7 |
| 20260902072005 | 80 | 195 | 1.0 | 4.0 | 0.00 | 0.00 | 0.00 | 81 | 1007.7 |
| 20260902071903 | 80 | 209 | 1.0 | 4.0 | 0.00 | 0.00 | 0.00 | 81 | 1007.7 |
| 20260902071803 | 80 | 210 | 2.0 | 4.0 | 0.00 | 0.00 | 0.00 | 81 | 1007.7 |
| 20260902071702 | 80 | 210 | 2.0 | 4.0 | 0.00 | 0.00 | 0.00 | 81 | 1007.8 |
| 20260902071603 | 80 | 202 | 2.0 | 4.0 | 0.00 | 0.00 | 0.00 | 81 | 1007.7 |
| 20260902071502 | 81 | 197 | 2.0 | 4.0 | 0.00 | 0.00 | 0.00 | 81 | 1007.7 |
| 20260902071404 | 81 | 216 | 2.0 | 4.0 | 0.00 | 0.00 | 0.00 | 81 | 1007.7 |
| 20260902071304 | 81 | 220 | 2.0 | 4.0 | 0.00 | 0.00 | 0.00 | 81 | 1007.7 |
| 20260902071203 | 81 | 220 | 2.0 | 4.0 | 0.00 | 0.00 | 0.00 | 81 | 1007.8 |
| 20260902071102 | 81 | 220 | 2.0 | 4.0 | 0.00 | 0.00 | 0.00 | 81 | 1007.8 |
| 20260902071004 | 81 | 221 | 2.0 | 4.0 | 0.00 | 0.00 | 0.00 | 81 | 1007.8 |
| 20260902070903 | 81 | 221 | 2.0 | 4.0 | 0.00 | 0.00 | 0.00 | 81 | 1007.9 |
| 20260902070804 | 81 | 224 | 1.0 | 3.0 | 0.00 | 0.00 | 0.00 | 81 | 1007.9 |
| 20260902070702 | 81 | 224 | 2.0 | 3.0 | 0.00 | 0.00 | 0.00 | 81 | 1007.9 |
| 20260902070601 | 81 | 214 | 2.0 | 3.0 | 0.00 | 0.00 | 0.00 | 81 | 1007.9 |
| 20260902070544 | 80 | 216 | 1.0 | 3.0 | 0.00 | 0.00 | 0.00 | 81 | 1008.0 |
| 20260902070528 | 81 | 213 | 2.0 | 3.0 | 0.00 | 0.00 | 0.00 | 81 | 1007.9 |
| 20260902070459 | 81 | 213 | 2.0 | 3.0 | 0.00 | 0.00 | 0.00 | 81 | 1007.9 |
| 20260902070433 | 80 | 217 | 1.0 | 3.0 | 0.00 | 0.00 | 0.00 | 81 | 1007.9 |
| 20260902070006 | 80 | 213 | 2.0 | 3.0 | 0.00 | 0.00 | 0.00 | 81 | 1007.9 |
| 20260902065903 | 80 | 214 | 1.0 | 3.0 | 0.00 | 0.00 | 0.00 | 80 | 1007.9 |
| 20260902065803 | 80 | 213 | 1.0 | 2.0 | 0.00 | 0.00 | 0.00 | 80 | 1008.0 |
| 20260902065703 | 80 | 213 | 1.0 | 2.0 | 0.00 | 0.00 | 0.00 | 80 | 1007.9 |
| 20260902065603 | 80 | 213 | 1.0 | 2.0 | 0.00 | 0.00 | 0.00 | 80 | 1007.9 |
| 20260902065503 | 80 | 213 | 1.0 | 2.0 | 0.00 | 0.00 | 0.00 | 80 | 1007.9 |
| 20260902065402 | 80 | 213 | 1.0 | 2.0 | 0.00 | 0.00 | 0.00 | 80 | 1007.8 |
| 20260902065306 | 80 | 213 | 1.0 | 3.0 | 0.00 | 0.00 | 0.00 | 80 | 1007.8 |
| 20260902065203 | 80 | 213 | 1.0 | 3.0 | 0.00 | 0.00 | 0.00 | 80 | 1007.9 |
| 20260902065103 | 80 | 212 | 1.0 | 3.0 | 0.00 | 0.00 | 0.00 | 80 | 1007.9 |
| 20260902065003 | 80 | 212 | 1.0 | 3.0 | 0.00 | 0.00 | 0.00 | 80 | 1007.9 |
| 20260902064905 | 80 | 212 | 1.0 | 3.0 | 0.00 | 0.00 | 0.00 | 80 | 1007.9 |
| 20260902064803 | 80 | 212 | 1.0 | 3.0 | 0.00 | 0.00 | 0.00 | 80 | 1007.8 |
| 20260902064701 | 80 | 212 | 1.0 | 3.0 | 0.00 | 0.00 | 0.00 | 80 | 1007.8 |
| 20260902064603 | 80 | 212 | 1.0 | 3.0 | 0.00 | 0.00 | 0.00 | 80 | 1007.8 |
| 20260902064502 | 80 | 212 | 2.0 | 3.0 | 0.00 | 0.00 | 0.00 | 80 | 1007.8 |
| 20260902064404 | 80 | 212 | 2.0 | 3.0 | 0.00 | 0.00 | 0.00 | 80 | 1007.7 |
| 20260902064302 | 80 | 209 | 2.0 | 3.0 | 0.00 | 0.00 | 0.00 | 80 | 1007.9 |
| 20260902064204 | 80 | 207 | 2.0 | 3.0 | 0.00 | 0.00 | 0.00 | 80 | 1007.9 |
| 20260902064103 | 80 | 207 | 2.0 | 3.0 | 0.00 | 0.00 | 0.00 | 80 | 1007.8 |
| 20260902064002 | 80 | 207 | 2.0 | 3.0 | 0.00 | 0.00 | 0.00 | 80 | 1007.8 |
| 20260902063904 | 80 | 207 | 2.0 | 3.0 | 0.00 | 0.00 | 0.00 | 80 | 1007.8 |
| 20260902063804 | 80 | 207 | 1.0 | 2.0 | 0.00 | 0.00 | 0.00 | 80 | 1007.7 |
| 20260902063704 | 81 | 207 | 1.0 | 2.0 | 0.00 | 0.00 | 0.00 | 79 | 1007.8 |
| 20260902063602 | 80 | 207 | 1.0 | 2.0 | 0.00 | 0.00 | 0.00 | 79 | 1007.7 |
| 20260902063503 | 80 | 207 | 0.0 | 2.0 | 0.00 | 0.00 | 0.00 | 79 | 1007.7 |
| 20260902063405 | 81 | 207 | 0.0 | 2.0 | 0.00 | 0.00 | 0.00 | 79 | 1007.7 |
| 20260902063303 | 81 | 207 | 0.0 | 2.0 | 0.00 | 0.00 | 0.00 | 79 | 1007.8 |
| 20260902063203 | 81 | 207 | 0.0 | 2.0 | 0.00 | 0.00 | 0.00 | 79 | 1007.7 |
| 20260902063103 | 81 | 207 | 1.0 | 2.0 | 0.00 | 0.00 | 0.00 | 79 | 1007.7 |
| 20260902063003 | 81 | 207 | 2.0 | 2.0 | 0.00 | 0.00 | 0.00 | 79 | 1007.7 |
| 20260902062905 | 80 | 207 | 2.0 | 3.0 | 0.00 | 0.00 | 0.00 | 79 | 1007.8 |
| 20260902062804 | 80 | 207 | 2.0 | 3.0 | 0.00 | 0.00 | 0.00 | 79 | 1007.8 |
| 20260902062702 | 80 | 207 | 1.0 | 3.0 | 0.00 | 0.00 | 0.00 | 80 | 1007.8 |
| 20260902062602 | 80 | 207 | 1.0 | 3.0 | 0.00 | 0.00 | 0.00 | 80 | 1007.7 |
| 20260902062502 | 80 | 207 | 0.0 | 3.0 | 0.00 | 0.00 | 0.00 | 80 | 1007.7 |
| 20260902062404 | 80 | 207 | 1.0 | 3.0 | 0.00 | 0.00 | 0.00 | 80 | 1007.7 |
| 20260902062305 | 80 | 207 | 1.0 | 3.0 | 0.00 | 0.00 | 0.00 | 80 | 1007.7 |
| 20260902062204 | 80 | 207 | 1.0 | 3.0 | 0.00 | 0.00 | 0.00 | 80 | 1007.6 |
| 20260902062103 | 80 | 207 | 2.0 | 3.0 | 0.00 | 0.00 | 0.00 | 81 | 1007.6 |
| 20260902062003 | 80 | 207 | 1.0 | 3.0 | 0.00 | 0.00 | 0.00 | 81 | 1007.6 |
| 20260902061903 | 80 | 209 | 1.0 | 4.0 | 0.00 | 0.00 | 0.00 | 81 | 1007.5 |
| 20260902061804 | 80 | 209 | 1.0 | 4.0 | 0.00 | 0.00 | 0.00 | 81 | 1007.6 |
| 20260902061702 | 80 | 216 | 1.0 | 4.0 | 0.00 | 0.00 | 0.00 | 81 | 1007.5 |
| 20260902061602 | 80 | 219 | 1.0 | 4.0 | 0.00 | 0.00 | 0.00 | 81 | 1007.5 |
| 20260902061503 | 80 | 219 | 1.0 | 4.0 | 0.00 | 0.00 | 0.00 | 81 | 1007.6 |
| 20260902061403 | 80 | 206 | 2.0 | 4.0 | 0.00 | 0.00 | 0.00 | 82 | 1007.5 |
| 20260902061303 | 80 | 206 | 2.0 | 4.0 | 0.00 | 0.00 | 0.00 | 82 | 1007.5 |
| 20260902061203 | 80 | 206 | 2.0 | 4.0 | 0.00 | 0.00 | 0.00 | 82 | 1007.5 |
| 20260902061104 | 80 | 206 | 2.0 | 4.0 | 0.00 | 0.00 | 0.00 | 82 | 1007.4 |
| 20260902061004 | 80 | 206 | 2.0 | 4.0 | 0.00 | 0.00 | 0.00 | 82 | 1007.5 |
| 20260902060903 | 80 | 204 | 1.0 | 4.0 | 0.00 | 0.00 | 0.00 | 82 | 1007.5 |
| 20260902060803 | 80 | 210 | 0.0 | 4.0 | 0.00 | 0.00 | 0.00 | 82 | 1007.4 |
| 20260902060703 | 80 | 210 | 1.0 | 4.0 | 0.00 | 0.00 | 0.00 | 82 | 1007.5 |
| 20260902060603 | 80 | 210 | 2.0 | 5.0 | 0.00 | 0.00 | 0.00 | 82 | 1007.5 |
| 20260902060504 | 80 | 212 | 2.0 | 5.0 | 0.00 | 0.00 | 0.00 | 82 | 1007.5 |
| 20260902060402 | 80 | 203 | 2.0 | 5.0 | 0.00 | 0.00 | 0.00 | 82 | 1007.5 |
| 20260902060303 | 80 | 204 | 2.0 | 5.0 | 0.00 | 0.00 | 0.00 | 82 | 1007.5 |
| 20260902060203 | 80 | 207 | 1.0 | 5.0 | 0.00 | 0.00 | 0.00 | 82 | 1007.5 |
| 20260902060002 | 80 | 206 | 2.0 | 5.0 | 0.00 | 0.00 | 0.00 | 82 | 1007.5 |
| 20260902055903 | 80 | 210 | 2.0 | 5.0 | 0.00 | 0.00 | 0.00 | 82 | 1007.5 |
| 20260902055802 | 80 | 217 | 3.0 | 5.0 | 0.00 | 0.00 | 0.00 | 82 | 1007.5 |
| 20260902055704 | 80 | 213 | 3.0 | 5.0 | 0.00 | 0.00 | 0.00 | 82 | 1007.5 |
| 20260902055602 | 80 | 207 | 2.0 | 4.0 | 0.00 | 0.00 | 0.00 | 82 | 1007.5 |
| 20260902055503 | 80 | 214 | 2.0 | 4.0 | 0.00 | 0.00 | 0.00 | 82 | 1007.5 |
| 20260902055402 | 80 | 214 | 2.0 | 4.0 | 0.00 | 0.00 | 0.00 | 82 | 1007.4 |
| 20260902055307 | 80 | 217 | 1.0 | 3.0 | 0.00 | 0.00 | 0.00 | 82 | 1007.5 |
| 20260902055202 | 80 | 213 | 1.0 | 3.0 | 0.00 | 0.00 | 0.00 | 82 | 1007.4 |
| 20260902055104 | 80 | 216 | 2.0 | 3.0 | 0.00 | 0.00 | 0.00 | 82 | 1007.5 |
| 20260902055002 | 80 | 204 | 2.0 | 3.0 | 0.00 | 0.00 | 0.00 | 82 | 1007.4 |
| 20260902054902 | 80 | 210 | 1.0 | 2.0 | 0.00 | 0.00 | 0.00 | 82 | 1007.4 |
| 20260902054803 | 80 | 209 | 1.0 | 2.0 | 0.00 | 0.00 | 0.00 | 82 | 1007.5 |
| 20260902054702 | 80 | 196 | 0.0 | 1.0 | 0.00 | 0.00 | 0.00 | 82 | 1007.5 |
| 20260902054603 | 80 | 200 | 0.0 | 0.0 | 0.00 | 0.00 | 0.00 | 82 | 1007.6 |
| 20260902054503 | 80 | 204 | 0.0 | 0.0 | 0.00 | 0.00 | 0.00 | 82 | 1007.6 |
| 20260902054402 | 80 | 196 | 0.0 | 0.0 | 0.00 | 0.00 | 0.00 | 82 | 1007.6 |
| 20260902054303 | 80 | 196 | 0.0 | 0.0 | 0.00 | 0.00 | 0.00 | 82 | 1007.7 |
| 20260902054201 | 80 | 190 | 0.0 | 0.0 | 0.00 | 0.00 | 0.00 | 82 | 1007.7 |
| 20260902054103 | 80 | 192 | 0.0 | 0.0 | 0.00 | 0.00 | 0.00 | 82 | 1007.8 |
| 20260902054005 | 80 | 196 | 0.0 | 1.0 | 0.00 | 0.00 | 0.00 | 82 | 1007.7 |
| 20260902053903 | 80 | 196 | 0.0 | 1.0 | 0.00 | 0.00 | 0.00 | 82 | 1007.6 |
| 20260902053804 | 80 | 196 | 0.0 | 2.0 | 0.00 | 0.00 | 0.00 | 82 | 1007.8 |
| 20260902053704 | 80 | 196 | 0.0 | 2.0 | 0.00 | 0.00 | 0.00 | 82 | 1007.8 |
| 20260902053602 | 80 | 195 | 0.0 | 2.0 | 0.00 | 0.00 | 0.00 | 82 | 1007.8 |
| 20260902053505 | 80 | 195 | 0.0 | 2.0 | 0.00 | 0.00 | 0.00 | 81 | 1007.8 |
| 20260902053403 | 80 | 189 | 0.0 | 2.0 | 0.00 | 0.00 | 0.00 | 81 | 1007.8 |
| 20260902053304 | 80 | 188 | 0.0 | 2.0 | 0.00 | 0.00 | 0.00 | 81 | 1007.8 |
| 20260902053202 | 80 | 188 | 0.0 | 2.0 | 0.00 | 0.00 | 0.00 | 81 | 1007.8 |
| 20260902053103 | 80 | 185 | 0.0 | 2.0 | 0.00 | 0.00 | 0.00 | 81 | 1007.8 |
| 20260902053002 | 80 | 185 | 1.0 | 2.0 | 0.00 | 0.00 | 0.00 | 81 | 1007.9 |
| 20260902052904 | 80 | 185 | 1.0 | 2.0 | 0.00 | 0.00 | 0.00 | 81 | 1007.9 |
| 20260902052803 | 80 | 130 | 1.0 | 2.0 | 0.00 | 0.00 | 0.00 | 81 | 1007.9 |
| 20260902052705 | 80 | 128 | 1.0 | 2.0 | 0.00 | 0.00 | 0.00 | 81 | 1007.9 |
| 20260902052601 | 80 | 128 | 1.0 | 2.0 | 0.00 | 0.00 | 0.00 | 81 | 1007.8 |
| 20260902052502 | 80 | 128 | 0.0 | 1.0 | 0.00 | 0.00 | 0.00 | 81 | 1007.8 |
| 20260902052404 | 80 | 124 | 0.0 | 0.0 | 0.00 | 0.00 | 0.00 | 81 | 1007.8 |
| 20260902052306 | 80 | 121 | 0.0 | 0.0 | 0.00 | 0.00 | 0.00 | 81 | 1007.7 |
| 20260902052203 | 80 | 121 | 0.0 | 0.0 | 0.00 | 0.00 | 0.00 | 81 | 1007.8 |
| 20260902052104 | 80 | 121 | 0.0 | 0.0 | 0.00 | 0.00 | 0.00 | 81 | 1007.8 |
| 20260902052003 | 80 | 120 | 0.0 | 0.0 | 0.00 | 0.00 | 0.00 | 81 | 1007.8 |
| 20260902051902 | 80 | 120 | 0.0 | 0.0 | 0.00 | 0.00 | 0.00 | 81 | 1007.8 |
| 20260902051802 | 80 | 120 | 0.0 | 0.0 | 0.00 | 0.00 | 0.00 | 81 | 1007.8 |
| 20260902051704 | 80 | 120 | 0.0 | 0.0 | 0.00 | 0.00 | 0.00 | 81 | 1007.7 |
| 20260902051604 | 80 | 120 | 0.0 | 0.0 | 0.00 | 0.00 | 0.00 | 81 | 1007.9 |
| 20260902051505 | 80 | 120 | 0.0 | 0.0 | 0.00 | 0.00 | 0.00 | 81 | 1007.9 |
| 20260902051402 | 80 | 120 | 0.0 | 0.0 | 0.00 | 0.00 | 0.00 | 81 | 1007.9 |
| 20260902051303 | 80 | 120 | 0.0 | 0.0 | 0.00 | 0.00 | 0.00 | 81 | 1007.8 |
| 20260902051202 | 80 | 120 | 0.0 | 0.0 | 0.00 | 0.00 | 0.00 | 81 | 1007.9 |
| 20260902051103 | 80 | 120 | 0.0 | 0.0 | 0.00 | 0.00 | 0.00 | 81 | 1007.9 |
| 20260902051006 | 80 | 120 | 0.0 | 0.0 | 0.00 | 0.00 | 0.00 | 81 | 1007.9 |
| 20260902050903 | 80 | 120 | 0.0 | 0.0 | 0.00 | 0.00 | 0.00 | 81 | 1007.9 |
| 20260902050802 | 80 | 120 | 0.0 | 0.0 | 0.00 | 0.00 | 0.00 | 81 | 1007.9 |
| 20260902050702 | 80 | 120 | 0.0 | 0.0 | 0.00 | 0.00 | 0.00 | 81 | 1007.8 |
| 20260902050603 | 80 | 120 | 0.0 | 0.0 | 0.00 | 0.00 | 0.00 | 81 | 1007.8 |
| 20260902050502 | 80 | 120 | 0.0 | 0.0 | 0.00 | 0.00 | 0.00 | 81 | 1007.9 |
| 20260902050402 | 80 | 120 | 0.0 | 0.0 | 0.00 | 0.00 | 0.00 | 81 | 1007.8 |
| 20260902050303 | 80 | 120 | 0.0 | 0.0 | 0.00 | 0.00 | 0.00 | 81 | 1007.8 |
| 20260902050205 | 80 | 120 | 0.0 | 0.0 | 0.00 | 0.00 | 0.00 | 81 | 1007.8 |
| 20260902050007 | 80 | 120 | 0.0 | 0.0 | 0.00 | 0.00 | 0.00 | 81 | 1007.8 |
| 20260902045905 | 80 | 120 | 0.0 | 0.0 | 0.00 | 0.00 | 0.00 | 81 | 1007.9 |
| 20260902045804 | 80 | 120 | 0.0 | 0.0 | 0.00 | 0.00 | 0.00 | 81 | 1008.0 |
| 20260902045703 | 80 | 120 | 0.0 | 0.0 | 0.00 | 0.00 | 0.00 | 81 | 1008.0 |
| 20260902045602 | 80 | 120 | 0.0 | 0.0 | 0.00 | 0.00 | 0.00 | 81 | 1007.9 |
| 20260902045502 | 80 | 120 | 0.0 | 0.0 | 0.00 | 0.00 | 0.00 | 81 | 1007.9 |
| 20260902045403 | 80 | 120 | 0.0 | 0.0 | 0.00 | 0.00 | 0.00 | 81 | 1008.0 |
| 20260902045306 | 80 | 120 | 0.0 | 0.0 | 0.00 | 0.00 | 0.00 | 81 | 1008.1 |
| 20260902045202 | 80 | 120 | 0.0 | 0.0 | 0.00 | 0.00 | 0.00 | 81 | 1008.0 |
| 20260902045103 | 80 | 120 | 0.0 | 0.0 | 0.00 | 0.00 | 0.00 | 81 | 1008.0 |
| 20260902045004 | 80 | 120 | 0.0 | 0.0 | 0.00 | 0.00 | 0.00 | 81 | 1008.0 |
| 20260902044902 | 81 | 120 | 0.0 | 0.0 | 0.00 | 0.00 | 0.00 | 81 | 1008.0 |
| 20260902044804 | 81 | 120 | 0.0 | 0.0 | 0.00 | 0.00 | 0.00 | 81 | 1008.0 |
| 20260902044702 | 81 | 120 | 0.0 | 0.0 | 0.00 | 0.00 | 0.00 | 81 | 1008.0 |
| 20260902044604 | 80 | 120 | 0.0 | 0.0 | 0.00 | 0.00 | 0.00 | 81 | 1008.0 |
| 20260902044503 | 80 | 120 | 0.0 | 0.0 | 0.00 | 0.00 | 0.00 | 81 | 1008.0 |
| 20260902044404 | 80 | 120 | 0.0 | 0.0 | 0.00 | 0.00 | 0.00 | 81 | 1007.9 |
| 20260902044303 | 80 | 120 | 0.0 | 0.0 | 0.00 | 0.00 | 0.00 | 81 | 1008.0 |
| 20260902044202 | 80 | 120 | 0.0 | 0.0 | 0.00 | 0.00 | 0.00 | 81 | 1008.0 |
| 20260902044103 | 80 | 120 | 0.0 | 0.0 | 0.00 | 0.00 | 0.00 | 81 | 1008.0 |
| 20260902044004 | 80 | 120 | 0.0 | 0.0 | 0.00 | 0.00 | 0.00 | 81 | 1008.0 |
| 20260902043903 | 80 | 120 | 0.0 | 0.0 | 0.00 | 0.00 | 0.00 | 81 | 1008.0 |
| 20260902043803 | 80 | 120 | 0.0 | 0.0 | 0.00 | 0.00 | 0.00 | 81 | 1008.0 |
| 20260902043702 | 80 | 120 | 0.0 | 0.0 | 0.00 | 0.00 | 0.00 | 81 | 1008.0 |
| 20260902043602 | 80 | 120 | 0.0 | 0.0 | 0.00 | 0.00 | 0.00 | 80 | 1008.1 |
| 20260902043504 | 80 | 120 | 0.0 | 0.0 | 0.00 | 0.00 | 0.00 | 80 | 1008.0 |
| 20260902043405 | 80 | 120 | 0.0 | 0.0 | 0.00 | 0.00 | 0.00 | 80 | 1007.9 |
| 20260902043303 | 80 | 120 | 0.0 | 0.0 | 0.00 | 0.00 | 0.00 | 80 | 1007.9 |
| 20260902043202 | 80 | 120 | 0.0 | 0.0 | 0.00 | 0.00 | 0.00 | 80 | 1007.9 |
| 20260902043103 | 80 | 120 | 0.0 | 0.0 | 0.00 | 0.00 | 0.00 | 80 | 1007.9 |
| 20260902043002 | 80 | 120 | 0.0 | 0.0 | 0.00 | 0.00 | 0.00 | 80 | 1008.0 |
| 20260902042902 | 81 | 120 | 0.0 | 0.0 | 0.00 | 0.00 | 0.00 | 80 | 1007.9 |
| 20260902042804 | 81 | 120 | 0.0 | 0.0 | 0.00 | 0.00 | 0.00 | 80 | 1008.0 |
| 20260902042705 | 81 | 120 | 0.0 | 0.0 | 0.00 | 0.00 | 0.00 | 80 | 1007.9 |
| 20260902042602 | 81 | 120 | 0.0 | 0.0 | 0.00 | 0.00 | 0.00 | 80 | 1007.9 |
| 20260902042502 | 81 | 120 | 0.0 | 0.0 | 0.00 | 0.00 | 0.00 | 80 | 1008.0 |
| 20260902042403 | 81 | 120 | 0.0 | 0.0 | 0.00 | 0.00 | 0.00 | 80 | 1008.0 |
| 20260902042307 | 81 | 120 | 0.0 | 0.0 | 0.00 | 0.00 | 0.00 | 80 | 1007.9 |
| 20260902042202 | 81 | 120 | 0.0 | 0.0 | 0.00 | 0.00 | 0.00 | 80 | 1007.9 |
| 20260902042105 | 81 | 120 | 0.0 | 0.0 | 0.00 | 0.00 | 0.00 | 80 | 1007.9 |
| 20260902042005 | 81 | 120 | 0.0 | 0.0 | 0.00 | 0.00 | 0.00 | 80 | 1007.9 |
| 20260902041904 | 81 | 118 | 0.0 | 0.0 | 0.00 | 0.00 | 0.00 | 80 | 1007.9 |
| 20260902041803 | 80 | 118 | 0.0 | 0.0 | 0.00 | 0.00 | 0.00 | 80 | 1008.0 |
| 20260902041702 | 80 | 118 | 0.0 | 0.0 | 0.00 | 0.00 | 0.00 | 79 | 1007.9 |
| 20260902041603 | 80 | 117 | 0.0 | 0.0 | 0.00 | 0.00 | 0.00 | 79 | 1007.9 |
| 20260902041506 | 80 | 117 | 0.0 | 0.0 | 0.00 | 0.00 | 0.00 | 79 | 1007.9 |
| 20260902041402 | 80 | 117 | 0.0 | 0.0 | 0.00 | 0.00 | 0.00 | 79 | 1008.0 |
| 20260902041302 | 80 | 117 | 0.0 | 0.0 | 0.00 | 0.00 | 0.00 | 79 | 1007.9 |
| 20260902041203 | 81 | 116 | 0.0 | 0.0 | 0.00 | 0.00 | 0.00 | 79 | 1007.9 |
| 20260902041103 | 81 | 116 | 0.0 | 0.0 | 0.00 | 0.00 | 0.00 | 79 | 1008.0 |
| 20260902041002 | 81 | 116 | 0.0 | 0.0 | 0.00 | 0.00 | 0.00 | 79 | 1008.0 |
| 20260902040904 | 81 | 86 | 0.0 | 0.0 | 0.00 | 0.00 | 0.00 | 79 | 1008.0 |
| 20260902040802 | 81 | 86 | 0.0 | 0.0 | 0.00 | 0.00 | 0.00 | 79 | 1008.0 |
| 20260902040703 | 81 | 86 | 0.0 | 0.0 | 0.00 | 0.00 | 0.00 | 79 | 1008.0 |
| 20260902040601 | 81 | 85 | 0.0 | 0.0 | 0.00 | 0.00 | 0.00 | 79 | 1008.0 |
| 20260902040503 | 81 | 85 | 0.0 | 0.0 | 0.00 | 0.00 | 0.00 | 79 | 1008.0 |
| 20260902040402 | 81 | 86 | 0.0 | 0.0 | 0.00 | 0.00 | 0.00 | 79 | 1007.9 |
| 20260902040302 | 81 | 86 | 0.0 | 0.0 | 0.00 | 0.00 | 0.00 | 79 | 1008.1 |
| 20260902040205 | 81 | 86 | 0.0 | 0.0 | 0.00 | 0.00 | 0.00 | 79 | 1008.0 |
| 20260902040103 | 81 | 86 | 0.0 | 0.0 | 0.00 | 0.00 | 0.00 | 79 | 1008.1 |
| 20260902040005 | 81 | 85 | 0.0 | 0.0 | 0.00 | 0.00 | 0.00 | 79 | 1008.1 |
| 20260902035903 | 81 | 86 | 0.0 | 0.0 | 0.00 | 0.00 | 0.00 | 79 | 1008.1 |
| 20260902035803 | 81 | 86 | 0.0 | 0.0 | 0.00 | 0.00 | 0.00 | 79 | 1008.1 |
| 20260902035703 | 81 | 85 | 0.0 | 0.0 | 0.00 | 0.00 | 0.00 | 80 | 1008.1 |
| 20260902035604 | 81 | 85 | 0.0 | 0.0 | 0.00 | 0.00 | 0.00 | 80 | 1008.1 |
| 20260902035502 | 81 | 85 | 0.0 | 0.0 | 0.00 | 0.00 | 0.00 | 80 | 1008.1 |
| 20260902035404 | 80 | 85 | 0.0 | 0.0 | 0.00 | 0.00 | 0.00 | 80 | 1008.1 |
| 20260902035305 | 80 | 85 | 0.0 | 0.0 | 0.00 | 0.00 | 0.00 | 80 | 1008.2 |
| 20260902035202 | 80 | 85 | 0.0 | 0.0 | 0.00 | 0.00 | 0.00 | 80 | 1008.2 |
| 20260902035102 | 80 | 85 | 0.0 | 0.0 | 0.00 | 0.00 | 0.00 | 80 | 1008.2 |
| 20260902035005 | 80 | 85 | 0.0 | 0.0 | 0.00 | 0.00 | 0.00 | 80 | 1008.2 |
| 20260902034901 | 80 | 85 | 0.0 | 0.0 | 0.00 | 0.00 | 0.00 | 80 | 1008.2 |
| 20260902034802 | 80 | 85 | 0.0 | 0.0 | 0.00 | 0.00 | 0.00 | 80 | 1008.2 |
| 20260902034703 | 80 | 85 | 0.0 | 0.0 | 0.00 | 0.00 | 0.00 | 80 | 1008.3 |
| 20260902034602 | 80 | 85 | 0.0 | 0.0 | 0.00 | 0.00 | 0.00 | 80 | 1008.2 |
| 20260902034503 | 80 | 85 | 0.0 | 0.0 | 0.00 | 0.00 | 0.00 | 80 | 1008.3 |
| 20260902034404 | 80 | 85 | 0.0 | 0.0 | 0.00 | 0.00 | 0.00 | 80 | 1008.2 |
| 20260902034303 | 81 | 85 | 0.0 | 0.0 | 0.00 | 0.00 | 0.00 | 80 | 1008.2 |
| 20260902034203 | 81 | 85 | 0.0 | 0.0 | 0.00 | 0.00 | 0.00 | 80 | 1008.2 |
| 20260902034103 | 80 | 85 | 0.0 | 0.0 | 0.00 | 0.00 | 0.00 | 80 | 1008.2 |
| 20260902034005 | 80 | 85 | 0.0 | 0.0 | 0.00 | 0.00 | 0.00 | 80 | 1008.3 |
| 20260902033903 | 80 | 85 | 0.0 | 0.0 | 0.00 | 0.00 | 0.00 | 80 | 1008.2 |
| 20260902033803 | 81 | 85 | 0.0 | 0.0 | 0.00 | 0.00 | 0.00 | 80 | 1008.2 |
| 20260902033703 | 81 | 85 | 0.0 | 0.0 | 0.00 | 0.00 | 0.00 | 80 | 1008.2 |
| 20260902033602 | 81 | 85 | 0.0 | 0.0 | 0.00 | 0.00 | 0.00 | 80 | 1008.2 |
| 20260902033503 | 81 | 85 | 0.0 | 0.0 | 0.00 | 0.00 | 0.00 | 80 | 1008.2 |
| 20260902033402 | 81 | 85 | 0.0 | 0.0 | 0.00 | 0.00 | 0.00 | 80 | 1008.3 |
| 20260902033304 | 81 | 85 | 0.0 | 0.0 | 0.00 | 0.00 | 0.00 | 80 | 1008.3 |
| 20260902033203 | 81 | 85 | 0.0 | 0.0 | 0.00 | 0.00 | 0.00 | 80 | 1008.2 |
| 20260902033103 | 81 | 85 | 0.0 | 0.0 | 0.00 | 0.00 | 0.00 | 79 | 1008.2 |
| 20260902033004 | 81 | 85 | 0.0 | 0.0 | 0.00 | 0.00 | 0.00 | 79 | 1008.2 |
| 20260902032903 | 81 | 85 | 0.0 | 0.0 | 0.00 | 0.00 | 0.00 | 79 | 1008.2 |
| 20260902032803 | 81 | 85 | 0.0 | 0.0 | 0.00 | 0.00 | 0.00 | 79 | 1008.2 |
| 20260902032703 | 81 | 85 | 0.0 | 0.0 | 0.00 | 0.00 | 0.00 | 79 | 1008.3 |
| 20260902032604 | 81 | 85 | 0.0 | 0.0 | 0.00 | 0.00 | 0.00 | 79 | 1008.2 |
| 20260902032502 | 81 | 85 | 0.0 | 0.0 | 0.00 | 0.00 | 0.00 | 79 | 1008.2 |
| 20260902032403 | 81 | 85 | 0.0 | 0.0 | 0.00 | 0.00 | 0.00 | 79 | 1008.2 |
| 20260902032306 | 81 | 85 | 0.0 | 0.0 | 0.00 | 0.00 | 0.00 | 79 | 1008.2 |
| 20260902032204 | 81 | 85 | 0.0 | 0.0 | 0.00 | 0.00 | 0.00 | 79 | 1008.0 |
| 20260902032104 | 81 | 85 | 0.0 | 0.0 | 0.00 | 0.00 | 0.00 | 79 | 1008.1 |
| 20260902032002 | 81 | 85 | 0.0 | 0.0 | 0.00 | 0.00 | 0.00 | 79 | 1008.0 |
| 20260902031903 | 81 | 85 | 0.0 | 0.0 | 0.00 | 0.00 | 0.00 | 79 | 1008.0 |
| 20260902031802 | 81 | 85 | 0.0 | 0.0 | 0.00 | 0.00 | 0.00 | 78 | 1008.1 |
| 20260902031704 | 81 | 85 | 0.0 | 0.0 | 0.00 | 0.00 | 0.00 | 79 | 1008.0 |
| 20260902031604 | 81 | 85 | 0.0 | 0.0 | 0.00 | 0.00 | 0.00 | 79 | 1008.0 |
| 20260902031504 | 81 | 85 | 0.0 | 0.0 | 0.00 | 0.00 | 0.00 | 79 | 1008.0 |
| 20260902031403 | 81 | 85 | 0.0 | 0.0 | 0.00 | 0.00 | 0.00 | 78 | 1008.0 |
| 20260902031303 | 81 | 85 | 0.0 | 0.0 | 0.00 | 0.00 | 0.00 | 78 | 1008.0 |
| 20260902031203 | 81 | 85 | 0.0 | 0.0 | 0.00 | 0.00 | 0.00 | 78 | 1008.0 |
| 20260902031103 | 81 | 85 | 0.0 | 0.0 | 0.00 | 0.00 | 0.00 | 78 | 1008.0 |
| 20260902031003 | 81 | 85 | 0.0 | 0.0 | 0.00 | 0.00 | 0.00 | 78 | 1008.0 |
| 20260902030901 | 81 | 85 | 0.0 | 0.0 | 0.00 | 0.00 | 0.00 | 78 | 1008.0 |
| 20260902030802 | 81 | 85 | 0.0 | 0.0 | 0.00 | 0.00 | 0.00 | 78 | 1007.9 |
| 20260902030703 | 81 | 85 | 0.0 | 0.0 | 0.00 | 0.00 | 0.00 | 78 | 1007.9 |
| 20260902030604 | 81 | 85 | 0.0 | 0.0 | 0.00 | 0.00 | 0.00 | 78 | 1007.8 |
| 20260902030503 | 81 | 85 | 0.0 | 0.0 | 0.00 | 0.00 | 0.00 | 78 | 1007.8 |
| 20260902030402 | 81 | 85 | 0.0 | 0.0 | 0.00 | 0.00 | 0.00 | 78 | 1007.9 |
| 20260902030303 | 81 | 85 | 0.0 | 0.0 | 0.00 | 0.00 | 0.00 | 78 | 1007.8 |
| 20260902030203 | 81 | 85 | 0.0 | 0.0 | 0.00 | 0.00 | 0.00 | 78 | 1007.8 |
| 20260902030104 | 81 | 85 | 0.0 | 0.0 | 0.00 | 0.00 | 0.00 | 78 | 1007.8 |
| 20260902030005 | 81 | 85 | 0.0 | 0.0 | 0.00 | 0.00 | 0.00 | 78 | 1007.7 |
| 20260902025903 | 82 | 85 | 0.0 | 0.0 | 0.00 | 0.00 | 0.00 | 78 | 1007.7 |
| 20260902025803 | 82 | 85 | 0.0 | 0.0 | 0.00 | 0.00 | 0.00 | 77 | 1007.7 |
| 20260902025702 | 82 | 85 | 0.0 | 0.0 | 0.00 | 0.00 | 0.00 | 77 | 1007.6 |
| 20260902025604 | 82 | 85 | 0.0 | 0.0 | 0.00 | 0.00 | 0.00 | 77 | 1007.7 |
| 20260902025502 | 82 | 85 | 0.0 | 0.0 | 0.00 | 0.00 | 0.00 | 77 | 1007.7 |
| 20260902025402 | 82 | 85 | 0.0 | 0.0 | 0.00 | 0.00 | 0.00 | 77 | 1007.7 |
| 20260902025306 | 82 | 85 | 0.0 | 0.0 | 0.00 | 0.00 | 0.00 | 77 | 1007.6 |
| 20260902025202 | 82 | 85 | 0.0 | 0.0 | 0.00 | 0.00 | 0.00 | 77 | 1007.7 |
| 20260902025103 | 82 | 85 | 0.0 | 0.0 | 0.00 | 0.00 | 0.00 | 77 | 1007.7 |
| 20260902025002 | 82 | 85 | 0.0 | 0.0 | 0.00 | 0.00 | 0.00 | 77 | 1007.7 |
| 20260902024902 | 82 | 85 | 0.0 | 0.0 | 0.00 | 0.00 | 0.00 | 77 | 1007.7 |
| 20260902024803 | 82 | 85 | 0.0 | 0.0 | 0.00 | 0.00 | 0.00 | 77 | 1007.6 |
| 20260902024702 | 82 | 85 | 0.0 | 0.0 | 0.00 | 0.00 | 0.00 | 78 | 1007.7 |
| 20260902024602 | 82 | 85 | 0.0 | 0.0 | 0.00 | 0.00 | 0.00 | 78 | 1007.7 |
| 20260902024504 | 82 | 85 | 0.0 | 0.0 | 0.00 | 0.00 | 0.00 | 78 | 1007.7 |
| 20260902024403 | 82 | 85 | 0.0 | 0.0 | 0.00 | 0.00 | 0.00 | 78 | 1007.7 |
| 20260902024303 | 82 | 86 | 0.0 | 0.0 | 0.00 | 0.00 | 0.00 | 78 | 1007.7 |
| 20260902024203 | 82 | 86 | 0.0 | 0.0 | 0.00 | 0.00 | 0.00 | 78 | 1007.7 |
| 20260902024102 | 81 | 86 | 0.0 | 0.0 | 0.00 | 0.00 | 0.00 | 78 | 1007.7 |
| 20260902024003 | 81 | 86 | 0.0 | 0.0 | 0.00 | 0.00 | 0.00 | 79 | 1007.6 |
| 20260902023902 | 81 | 86 | 0.0 | 0.0 | 0.00 | 0.00 | 0.00 | 78 | 1007.6 |
| 20260902023804 | 0 | 0.0 | 0.0 | 0.00 | 0.00 | 0.00 | 1007.5 | ||
| 20260902023702 | 0 | 0.0 | 0.0 | 0.00 | 0.00 | 0.00 | 1007.6 | ||
| 20260902023604 | 81 | 86 | 0.0 | 0.0 | 0.00 | 0.00 | 0.00 | 78 | 1007.5 |
| 20260902023505 | 81 | 86 | 0.0 | 0.0 | 0.00 | 0.00 | 0.00 | 78 | 1007.5 |
| 20260902023404 | 81 | 86 | 0.0 | 0.0 | 0.00 | 0.00 | 0.00 | 78 | 1007.4 |
| 20260902023304 | 81 | 86 | 0.0 | 0.0 | 0.00 | 0.00 | 0.00 | 78 | 1007.5 |
| 20260902023204 | 81 | 86 | 0.0 | 0.0 | 0.00 | 0.00 | 0.00 | 78 | 1007.5 |
| 20260902023103 | 81 | 86 | 0.0 | 0.0 | 0.00 | 0.00 | 0.00 | 78 | 1007.5 |
| 20260902023003 | 81 | 86 | 0.0 | 0.0 | 0.00 | 0.00 | 0.00 | 78 | 1007.5 |
| 20260902022903 | 81 | 86 | 0.0 | 0.0 | 0.00 | 0.00 | 0.00 | 78 | 1007.5 |
| 20260902022804 | 81 | 86 | 0.0 | 0.0 | 0.00 | 0.00 | 0.00 | 78 | 1007.5 |
| 20260902022703 | 81 | 86 | 0.0 | 0.0 | 0.00 | 0.00 | 0.00 | 78 | 1007.4 |
| 20260902022603 | 81 | 86 | 0.0 | 0.0 | 0.00 | 0.00 | 0.00 | 78 | 1007.4 |
| 20260902022503 | 81 | 86 | 0.0 | 0.0 | 0.00 | 0.00 | 0.00 | 78 | 1007.4 |
| 20260902022403 | 81 | 86 | 0.0 | 0.0 | 0.00 | 0.00 | 0.00 | 78 | 1007.4 |
| 20260902022305 | 81 | 86 | 0.0 | 0.0 | 0.00 | 0.00 | 0.00 | 78 | 1007.4 |
| 20260902022203 | 81 | 86 | 0.0 | 0.0 | 0.00 | 0.00 | 0.00 | 78 | 1007.4 |
| 20260902022103 | 81 | 86 | 0.0 | 0.0 | 0.00 | 0.00 | 0.00 | 78 | 1007.4 |
| 20260902022005 | 81 | 86 | 0.0 | 0.0 | 0.00 | 0.00 | 0.00 | 78 | 1007.4 |
| 20260902021902 | 81 | 86 | 0.0 | 0.0 | 0.00 | 0.00 | 0.00 | 78 | 1007.4 |
| 20260902021803 | 81 | 86 | 0.0 | 0.0 | 0.00 | 0.00 | 0.00 | 78 | 1007.4 |
| 20260902021704 | 81 | 86 | 0.0 | 0.0 | 0.00 | 0.00 | 0.00 | 78 | 1007.3 |
| 20260902021603 | 82 | 86 | 0.0 | 0.0 | 0.00 | 0.00 | 0.00 | 78 | 1007.4 |
| 20260902021504 | 82 | 86 | 0.0 | 0.0 | 0.00 | 0.00 | 0.00 | 77 | 1007.3 |
| 20260902021404 | 82 | 86 | 0.0 | 0.0 | 0.00 | 0.00 | 0.00 | 77 | 1007.3 |
| 20260902021302 | 82 | 86 | 0.0 | 0.0 | 0.00 | 0.00 | 0.00 | 77 | 1007.3 |
| 20260902021203 | 82 | 86 | 0.0 | 0.0 | 0.00 | 0.00 | 0.00 | 77 | 1007.2 |
| 20260902021103 | 82 | 86 | 0.0 | 0.0 | 0.00 | 0.00 | 0.00 | 77 | 1007.2 |
| 20260902021004 | 82 | 86 | 0.0 | 0.0 | 0.00 | 0.00 | 0.00 | 77 | 1007.3 |
| 20260902020903 | 82 | 86 | 0.0 | 0.0 | 0.00 | 0.00 | 0.00 | 77 | 1007.2 |
| 20260902020804 | 82 | 86 | 0.0 | 0.0 | 0.00 | 0.00 | 0.00 | 77 | 1007.3 |
| 20260902020703 | 82 | 86 | 0.0 | 0.0 | 0.00 | 0.00 | 0.00 | 77 | 1007.2 |
| 20260902020603 | 82 | 86 | 0.0 | 0.0 | 0.00 | 0.00 | 0.00 | 76 | 1007.2 |
| 20260902020503 | 82 | 86 | 0.0 | 0.0 | 0.00 | 0.00 | 0.00 | 76 | 1007.2 |
| 20260902020403 | 82 | 86 | 0.0 | 0.0 | 0.00 | 0.00 | 0.00 | 76 | 1007.2 |
| 20260902020302 | 82 | 86 | 0.0 | 0.0 | 0.00 | 0.00 | 0.00 | 76 | 1007.2 |
| 20260902020204 | 82 | 86 | 0.0 | 0.0 | 0.00 | 0.00 | 0.00 | 76 | 1007.2 |
| 20260902020103 | 82 | 86 | 0.0 | 0.0 | 0.00 | 0.00 | 0.00 | 76 | 1007.1 |
| 20260902020005 | 82 | 86 | 0.0 | 0.0 | 0.00 | 0.00 | 0.00 | 77 | 1007.1 |
| 20260902015903 | 82 | 86 | 0.0 | 0.0 | 0.00 | 0.00 | 0.00 | 77 | 1007.0 |
| 20260902015802 | 82 | 86 | 0.0 | 0.0 | 0.00 | 0.00 | 0.00 | 77 | 1006.9 |
| 20260902015704 | 82 | 86 | 0.0 | 0.0 | 0.00 | 0.00 | 0.00 | 77 | 1006.9 |
| 20260902015602 | 82 | 86 | 0.0 | 0.0 | 0.00 | 0.00 | 0.00 | 77 | 1006.9 |
| 20260902015504 | 82 | 86 | 0.0 | 0.0 | 0.00 | 0.00 | 0.00 | 76 | 1007.0 |
| 20260902015403 | 82 | 86 | 0.0 | 0.0 | 0.00 | 0.00 | 0.00 | 76 | 1006.9 |
| 20260902015305 | 82 | 86 | 0.0 | 0.0 | 0.00 | 0.00 | 0.00 | 76 | 1006.9 |
| 20260902015202 | 82 | 86 | 0.0 | 0.0 | 0.00 | 0.00 | 0.00 | 76 | 1006.8 |
| 20260902015103 | 82 | 86 | 0.0 | 0.0 | 0.00 | 0.00 | 0.00 | 77 | 1006.9 |
| 20260902015003 | 82 | 86 | 0.0 | 0.0 | 0.00 | 0.00 | 0.00 | 76 | 1006.9 |
| 20260902014905 | 82 | 86 | 0.0 | 0.0 | 0.00 | 0.00 | 0.00 | 76 | 1006.9 |
| 20260902014803 | 82 | 86 | 0.0 | 0.0 | 0.00 | 0.00 | 0.00 | 76 | 1006.9 |
| 20260902014702 | 82 | 86 | 0.0 | 0.0 | 0.00 | 0.00 | 0.00 | 76 | 1006.8 |
| 20260902014603 | 82 | 86 | 0.0 | 0.0 | 0.00 | 0.00 | 0.00 | 76 | 1006.8 |
| 20260902014504 | 82 | 86 | 0.0 | 0.0 | 0.00 | 0.00 | 0.00 | 76 | 1006.8 |
| 20260902014404 | 82 | 86 | 0.0 | 0.0 | 0.00 | 0.00 | 0.00 | 76 | 1006.8 |
| 20260902014303 | 82 | 86 | 0.0 | 0.0 | 0.00 | 0.00 | 0.00 | 76 | 1006.8 |
| 20260902014202 | 82 | 86 | 0.0 | 0.0 | 0.00 | 0.00 | 0.00 | 76 | 1006.8 |
| 20260902014101 | 82 | 86 | 0.0 | 0.0 | 0.00 | 0.00 | 0.00 | 76 | 1006.7 |
| 20260902014005 | 83 | 86 | 0.0 | 0.0 | 0.00 | 0.00 | 0.00 | 76 | 1006.8 |
| 20260902013904 | 83 | 86 | 0.0 | 0.0 | 0.00 | 0.00 | 0.00 | 76 | 1006.7 |
| 20260902013804 | 83 | 86 | 0.0 | 0.0 | 0.00 | 0.00 | 0.00 | 76 | 1006.6 |
| 20260902013703 | 83 | 86 | 0.0 | 0.0 | 0.00 | 0.00 | 0.00 | 76 | 1006.6 |
| 20260902013601 | 83 | 86 | 0.0 | 0.0 | 0.00 | 0.00 | 0.00 | 76 | 1006.6 |
| 20260902013503 | 83 | 86 | 0.0 | 0.0 | 0.00 | 0.00 | 0.00 | 76 | 1006.6 |
| 20260902013402 | 83 | 86 | 0.0 | 0.0 | 0.00 | 0.00 | 0.00 | 76 | 1006.6 |
| 20260902013303 | 83 | 86 | 0.0 | 0.0 | 0.00 | 0.00 | 0.00 | 75 | 1006.6 |
| 20260902013201 | 83 | 86 | 0.0 | 0.0 | 0.00 | 0.00 | 0.00 | 75 | 1006.6 |
| 20260902013052 | 83 | 86 | 0.0 | 0.0 | 0.00 | 0.00 | 0.00 | 75 | 1006.6 |
| 20260902012951 | 83 | 86 | 0.0 | 0.0 | 0.00 | 0.00 | 0.00 | 75 | 1006.5 |
| 20260902012847 | 83 | 86 | 0.0 | 0.0 | 0.00 | 0.00 | 0.00 | 75 | 1006.5 |
| 20260902012742 | 83 | 86 | 0.0 | 0.0 | 0.00 | 0.00 | 0.00 | 75 | 1006.5 |
| 20260902012641 | 83 | 86 | 0.0 | 0.0 | 0.00 | 0.00 | 0.00 | 75 | 1006.5 |
| 20260902012542 | 83 | 86 | 0.0 | 0.0 | 0.00 | 0.00 | 0.00 | 75 | 1006.6 |
| 20260902012441 | 83 | 86 | 0.0 | 0.0 | 0.00 | 0.00 | 0.00 | 74 | 1006.6 |
| 20260902012342 | 83 | 86 | 0.0 | 0.0 | 0.00 | 0.00 | 0.00 | 74 | 1006.5 |
| 20260902012241 | 83 | 86 | 0.0 | 0.0 | 0.00 | 0.00 | 0.00 | 75 | 1006.5 |
| 20260902012140 | 83 | 86 | 0.0 | 0.0 | 0.00 | 0.00 | 0.00 | 74 | 1006.6 |
| 20260902012040 | 83 | 86 | 0.0 | 0.0 | 0.00 | 0.00 | 0.00 | 74 | 1006.5 |
| 20260902011941 | 83 | 86 | 0.0 | 0.0 | 0.00 | 0.00 | 0.00 | 74 | 1006.6 |
| 20260902011843 | 83 | 86 | 0.0 | 0.0 | 0.00 | 0.00 | 0.00 | 74 | 1006.5 |
| 20260902011742 | 83 | 86 | 0.0 | 0.0 | 0.00 | 0.00 | 0.00 | 74 | 1006.5 |
| 20260902011642 | 83 | 86 | 0.0 | 0.0 | 0.00 | 0.00 | 0.00 | 74 | 1006.5 |
| 20260902011542 | 83 | 86 | 0.0 | 0.0 | 0.00 | 0.00 | 0.00 | 74 | 1006.6 |
| 20260902011442 | 83 | 86 | 0.0 | 0.0 | 0.00 | 0.00 | 0.00 | 74 | 1006.6 |
| 20260902011340 | 83 | 86 | 0.0 | 0.0 | 0.00 | 0.00 | 0.00 | 74 | 1006.5 |
| 20260902011240 | 83 | 86 | 0.0 | 0.0 | 0.00 | 0.00 | 0.00 | 74 | 1006.6 |
| 20260902011142 | 83 | 86 | 0.0 | 0.0 | 0.00 | 0.00 | 0.00 | 74 | 1006.5 |
| 20260902011042 | 84 | 86 | 0.0 | 1.0 | 0.00 | 0.00 | 0.00 | 74 | 1006.6 |
| 20260902010942 | 84 | 86 | 0.0 | 1.0 | 0.00 | 0.00 | 0.00 | 74 | 1006.6 |
| 20260902010842 | 84 | 86 | 0.0 | 1.0 | 0.00 | 0.00 | 0.00 | 74 | 1006.6 |
| 20260902010741 | 84 | 86 | 0.0 | 1.0 | 0.00 | 0.00 | 0.00 | 74 | 1006.6 |
| 20260902010643 | 84 | 86 | 0.0 | 2.0 | 0.00 | 0.00 | 0.00 | 74 | 1006.6 |
| 20260902010540 | 84 | 86 | 0.0 | 2.0 | 0.00 | 0.00 | 0.00 | 74 | 1006.6 |
| 20260902010441 | 84 | 86 | 0.0 | 2.0 | 0.00 | 0.00 | 0.00 | 74 | 1006.5 |
| 20260902010340 | 84 | 86 | 0.0 | 2.0 | 0.00 | 0.00 | 0.00 | 74 | 1006.6 |
| 20260902010240 | 84 | 86 | 0.0 | 2.0 | 0.00 | 0.00 | 0.00 | 74 | 1006.7 |
| 20260902010142 | 84 | 86 | 0.0 | 2.0 | 0.00 | 0.00 | 0.00 | 74 | 1006.7 |
| 20260902010041 | 84 | 86 | 0.0 | 2.0 | 0.00 | 0.00 | 0.00 | 74 | 1006.7 |
| 20260902005941 | 84 | 86 | 0.0 | 2.0 | 0.00 | 0.00 | 0.00 | 74 | 1006.7 |
| 20260902005840 | 84 | 86 | 0.0 | 2.0 | 0.00 | 0.00 | 0.00 | 74 | 1006.8 |
| 20260902005741 | 84 | 86 | 1.0 | 2.0 | 0.00 | 0.00 | 0.00 | 74 | 1006.7 |
| 20260902005640 | 84 | 86 | 1.0 | 2.0 | 0.00 | 0.00 | 0.00 | 74 | 1006.7 |
| 20260902005541 | 84 | 86 | 0.0 | 2.0 | 0.00 | 0.00 | 0.00 | 74 | 1006.7 |
| 20260902005442 | 84 | 86 | 0.0 | 2.0 | 0.00 | 0.00 | 0.00 | 74 | 1006.8 |
| 20260902005341 | 84 | 86 | 1.0 | 2.0 | 0.00 | 0.00 | 0.00 | 74 | 1006.7 |
| 20260902005242 | 84 | 86 | 1.0 | 2.0 | 0.00 | 0.00 | 0.00 | 74 | 1006.7 |
| 20260902005141 | 84 | 86 | 0.0 | 2.0 | 0.00 | 0.00 | 0.00 | 74 | 1006.7 |
| 20260902005042 | 84 | 86 | 0.0 | 2.0 | 0.00 | 0.00 | 0.00 | 74 | 1006.8 |
| 20260902004941 | 84 | 86 | 0.0 | 2.0 | 0.00 | 0.00 | 0.00 | 74 | 1006.8 |
| 20260902004842 | 84 | 86 | 0.0 | 3.0 | 0.00 | 0.00 | 0.00 | 74 | 1006.8 |
| 20260902004740 | 84 | 86 | 0.0 | 3.0 | 0.00 | 0.00 | 0.00 | 74 | 1006.7 |
| 20260902004639 | 84 | 86 | 0.0 | 3.0 | 0.00 | 0.00 | 0.00 | 73 | 1006.8 |
| 20260902004539 | 84 | 86 | 0.0 | 4.0 | 0.00 | 0.00 | 0.00 | 73 | 1006.8 |
| 20260902004441 | 84 | 86 | 0.0 | 4.0 | 0.00 | 0.00 | 0.00 | 73 | 1006.7 |
| 20260902004340 | 84 | 86 | 1.0 | 4.0 | 0.00 | 0.00 | 0.00 | 73 | 1006.7 |
| 20260902004239 | 84 | 86 | 0.0 | 4.0 | 0.00 | 0.00 | 0.00 | 73 | 1006.7 |
| 20260902004139 | 84 | 86 | 0.0 | 5.0 | 0.00 | 0.00 | 0.00 | 73 | 1006.7 |
| 20260902004039 | 84 | 86 | 0.0 | 5.0 | 0.00 | 0.00 | 0.00 | 73 | 1006.6 |
| 20260902003939 | 84 | 86 | 1.0 | 5.0 | 0.00 | 0.00 | 0.00 | 73 | 1006.8 |
| 20260902003839 | 84 | 89 | 2.0 | 5.0 | 0.00 | 0.00 | 0.00 | 73 | 1006.8 |
| 20260902003739 | 84 | 89 | 2.0 | 5.0 | 0.00 | 0.00 | 0.00 | 73 | 1006.7 |
| 20260902003640 | 84 | 90 | 2.0 | 5.0 | 0.00 | 0.00 | 0.00 | 73 | 1006.8 |
| 20260902003540 | 84 | 90 | 2.0 | 5.0 | 0.00 | 0.00 | 0.00 | 73 | 1006.7 |
| 20260902003441 | 84 | 92 | 3.0 | 5.0 | 0.00 | 0.00 | 0.00 | 73 | 1006.7 |
| 20260902003339 | 84 | 92 | 3.0 | 5.0 | 0.00 | 0.00 | 0.00 | 73 | 1006.7 |
| 20260902003242 | 84 | 90 | 3.0 | 5.0 | 0.00 | 0.00 | 0.00 | 73 | 1006.7 |
| 20260902003139 | 85 | 78 | 2.0 | 3.0 | 0.00 | 0.00 | 0.00 | 73 | 1006.7 |
| 20260902003039 | 85 | 71 | 2.0 | 3.0 | 0.00 | 0.00 | 0.00 | 73 | 1006.7 |
| 20260902002942 | 85 | 69 | 2.0 | 4.0 | 0.00 | 0.00 | 0.00 | 73 | 1006.6 |
| 20260902002841 | 85 | 68 | 1.0 | 4.0 | 0.00 | 0.00 | 0.00 | 73 | 1006.6 |
| 20260902002739 | 85 | 54 | 0.0 | 4.0 | 0.00 | 0.00 | 0.00 | 73 | 1006.7 |
| 20260902002639 | 85 | 54 | 1.0 | 4.0 | 0.00 | 0.00 | 0.00 | 73 | 1006.7 |
| 20260902002539 | 85 | 54 | 1.0 | 4.0 | 0.00 | 0.00 | 0.00 | 73 | 1006.7 |
| 20260902002439 | 85 | 54 | 1.0 | 4.0 | 0.00 | 0.00 | 0.00 | 73 | 1006.7 |
| 20260902002339 | 85 | 54 | 2.0 | 4.0 | 0.00 | 0.00 | 0.00 | 72 | 1006.6 |
| 20260902002241 | 85 | 54 | 3.0 | 4.0 | 0.00 | 0.00 | 0.00 | 72 | 1006.6 |
| 20260902002141 | 85 | 56 | 2.0 | 4.0 | 0.00 | 0.00 | 0.00 | 72 | 1006.7 |
| 20260902002041 | 85 | 51 | 1.0 | 4.0 | 0.00 | 0.00 | 0.00 | 72 | 1006.7 |
| 20260902001941 | 85 | 61 | 0.0 | 4.0 | 0.00 | 0.00 | 0.00 | 73 | 1006.6 |
| 20260902001840 | 85 | 73 | 1.0 | 4.0 | 0.00 | 0.00 | 0.00 | 72 | 1006.7 |
| 20260902001740 | 85 | 71 | 2.0 | 4.0 | 0.00 | 0.00 | 0.00 | 72 | 1006.6 |
| 20260902001641 | 85 | 71 | 2.0 | 4.0 | 0.00 | 0.00 | 0.00 | 72 | 1006.6 |
| 20260902001539 | 85 | 66 | 2.0 | 4.0 | 0.00 | 0.00 | 0.00 | 72 | 1006.6 |
| 20260902001440 | 85 | 62 | 2.0 | 5.0 | 0.00 | 0.00 | 0.00 | 72 | 1006.5 |
| 20260902001340 | 85 | 61 | 1.0 | 5.0 | 0.00 | 0.00 | 0.00 | 72 | 1006.5 |
| 20260902001239 | 85 | 59 | 1.0 | 5.0 | 0.00 | 0.00 | 0.00 | 72 | 1006.5 |
| 20260902001140 | 85 | 47 | 1.0 | 5.0 | 0.00 | 0.00 | 0.00 | 72 | 1006.5 |
| 20260902001039 | 85 | 47 | 2.0 | 5.0 | 0.00 | 0.00 | 0.00 | 72 | 1006.5 |
| 20260902000941 | 85 | 32 | 3.0 | 5.0 | 0.00 | 0.00 | 0.00 | 72 | 1006.6 |
| 20260902000840 | 85 | 100 | 3.0 | 5.0 | 0.00 | 0.00 | 0.00 | 72 | 1006.6 |
| 20260902000738 | 85 | 75 | 2.0 | 5.0 | 0.00 | 0.00 | 0.00 | 72 | 1006.6 |
| 20260902000638 | 85 | 47 | 3.0 | 5.0 | 0.00 | 0.00 | 0.00 | 72 | 1006.6 |
| 20260902000538 | 85 | 48 | 3.0 | 5.0 | 0.00 | 0.00 | 0.00 | 72 | 1006.7 |
| 20260902000440 | 85 | 51 | 3.0 | 5.0 | 0.00 | 0.00 | 0.00 | 72 | 1006.6 |
| 20260902000341 | 85 | 27 | 3.0 | 6.0 | 0.00 | 0.00 | 0.00 | 72 | 1006.6 |
| 20260902000241 | 85 | 21 | 2.0 | 6.0 | 0.00 | 0.00 | 0.00 | 72 | 1006.6 |
| 20260902000139 | 85 | 52 | 2.0 | 6.0 | 0.00 | 0.00 | 0.00 | 72 | 1006.6 |
| 20260902000040 | 85 | 37 | 2.0 | 6.0 | 0.00 | 0.00 | 0.00 | 72 | 1006.6 |
| 20260901235940 | 85 | 32 | 2.0 | 7.0 | 0.00 | 0.00 | 0.00 | 72 | 1006.7 |
| 20260901235840 | 85 | 34 | 2.0 | 7.0 | 0.00 | 0.00 | 0.00 | 72 | 1006.6 |
| 20260901235739 | 85 | 59 | 2.0 | 7.0 | 0.00 | 0.00 | 0.00 | 72 | 1006.6 |
| 20260901235638 | 85 | 59 | 2.0 | 7.0 | 0.00 | 0.00 | 0.00 | 72 | 1006.6 |
| 20260901235540 | 85 | 45 | 3.0 | 7.0 | 0.00 | 0.00 | 0.00 | 72 | 1006.6 |
| 20260901235439 | 85 | 48 | 4.0 | 7.0 | 0.00 | 0.00 | 0.00 | 72 | 1006.5 |
| 20260901235338 | 85 | 32 | 4.0 | 7.0 | 0.00 | 0.00 | 0.00 | 72 | 1006.6 |
| 20260901235239 | 85 | 62 | 4.0 | 7.0 | 0.00 | 0.00 | 0.00 | 72 | 1006.6 |
| 20260901235140 | 85 | 49 | 4.0 | 7.0 | 0.00 | 0.00 | 0.00 | 72 | 1006.6 |
| 20260901235040 | 85 | 55 | 4.0 | 11.0 | 0.00 | 0.00 | 0.00 | 72 | 1006.6 |
| 20260901234940 | 85 | 31 | 4.0 | 11.0 | 0.00 | 0.00 | 0.00 | 72 | 1006.7 |
| 20260901234840 | 85 | 31 | 4.0 | 11.0 | 0.00 | 0.00 | 0.00 | 72 | 1006.6 |
| 20260901234739 | 85 | 65 | 3.0 | 11.0 | 0.00 | 0.00 | 0.00 | 72 | 1006.6 |
| 20260901234639 | 85 | 31 | 3.0 | 11.0 | 0.00 | 0.00 | 0.00 | 72 | 1006.6 |
| 20260901234538 | 85 | 49 | 3.0 | 11.0 | 0.00 | 0.00 | 0.00 | 72 | 1006.6 |
| 20260901234440 | 85 | 354 | 3.0 | 11.0 | 0.00 | 0.00 | 0.00 | 72 | 1006.5 |
| 20260901234339 | 85 | 56 | 3.0 | 11.0 | 0.00 | 0.00 | 0.00 | 72 | 1006.6 |
| 20260901234240 | 85 | 44 | 5.0 | 11.0 | 0.00 | 0.00 | 0.00 | 72 | 1006.6 |
| 20260901234138 | 85 | 100 | 5.0 | 11.0 | 0.00 | 0.00 | 0.00 | 71 | 1006.7 |
| 20260901234040 | 85 | 42 | 5.0 | 12.0 | 0.00 | 0.00 | 0.00 | 72 | 1006.6 |
| 20260901233940 | 85 | 62 | 5.0 | 12.0 | 0.00 | 0.00 | 0.00 | 72 | 1006.7 |
| 20260901233840 | 85 | 42 | 5.0 | 12.0 | 0.00 | 0.00 | 0.00 | 72 | 1006.7 |
| 20260901233740 | 85 | 13 | 4.0 | 13.0 | 0.00 | 0.00 | 0.00 | 71 | 1006.7 |
| 20260901233638 | 85 | 59 | 3.0 | 13.0 | 0.00 | 0.00 | 0.00 | 71 | 1006.8 |
| 20260901233540 | 85 | 55 | 4.0 | 13.0 | 0.00 | 0.00 | 0.00 | 71 | 1006.7 |
| 20260901233439 | 85 | 44 | 6.0 | 13.0 | 0.00 | 0.00 | 0.00 | 71 | 1006.7 |
| 20260901233338 | 85 | 86 | 5.0 | 13.0 | 0.00 | 0.00 | 0.00 | 71 | 1006.7 |
| 20260901233241 | 85 | 66 | 5.0 | 13.0 | 0.00 | 0.00 | 0.00 | 71 | 1006.7 |
| 20260901233139 | 86 | 61 | 7.0 | 13.0 | 0.00 | 0.00 | 0.00 | 71 | 1006.8 |
| 20260901233038 | 86 | 78 | 6.0 | 13.0 | 0.00 | 0.00 | 0.00 | 71 | 1006.7 |
| 20260901232939 | 86 | 51 | 7.0 | 13.0 | 0.00 | 0.00 | 0.00 | 71 | 1006.8 |
| 20260901232839 | 86 | 94 | 8.0 | 13.0 | 0.00 | 0.00 | 0.00 | 71 | 1006.7 |
| 20260901232739 | 86 | 63 | 7.0 | 13.0 | 0.00 | 0.00 | 0.00 | 72 | 1006.7 |
| 20260901232638 | 86 | 48 | 6.0 | 12.0 | 0.00 | 0.00 | 0.00 | 72 | 1006.7 |
| 20260901232540 | 86 | 96 | 5.0 | 12.0 | 0.00 | 0.00 | 0.00 | 72 | 1006.8 |
| 20260901232439 | 86 | 27 | 5.0 | 12.0 | 0.00 | 0.00 | 0.00 | 72 | 1006.7 |
| 20260901232338 | 86 | 351 | 6.0 | 12.0 | 0.00 | 0.00 | 0.00 | 72 | 1006.7 |
| 20260901232239 | 86 | 27 | 5.0 | 11.0 | 0.00 | 0.00 | 0.00 | 72 | 1006.7 |
| 20260901232139 | 86 | 49 | 5.0 | 11.0 | 0.00 | 0.00 | 0.00 | 72 | 1006.7 |
| 20260901232043 | 87 | 0 | 6.0 | 11.0 | 0.00 | 0.00 | 0.00 | 72 | 1006.7 |
| 20260901231938 | 87 | 0 | 6.0 | 10.0 | 0.00 | 0.00 | 0.00 | 72 | 1006.6 |
| 20260901231838 | 87 | 23 | 4.0 | 12.0 | 0.00 | 0.00 | 0.00 | 72 | 1006.7 |
| 20260901231739 | 87 | 37 | 6.0 | 14.0 | 0.00 | 0.00 | 0.00 | 71 | 1006.6 |
| 20260901231637 | 87 | 37 | 6.0 | 14.0 | 0.00 | 0.00 | 0.00 | 71 | 1006.7 |
| 20260901231537 | 87 | 37 | 6.0 | 14.0 | 0.00 | 0.00 | 0.00 | 71 | 1006.7 |
| 20260901231437 | 87 | 37 | 6.0 | 14.0 | 0.00 | 0.00 | 0.00 | 71 | 1006.7 |
| 20260901231337 | 87 | 37 | 6.0 | 14.0 | 0.00 | 0.00 | 0.00 | 71 | 1006.7 |
| 20260901231237 | 87 | 37 | 6.0 | 14.0 | 0.00 | 0.00 | 0.00 | 71 | 1006.7 |
| 20260901231136 | 87 | 37 | 6.0 | 14.0 | 0.00 | 0.00 | 0.00 | 71 | 1006.7 |
| 20260901231037 | 88 | 49 | 7.0 | 14.0 | 0.00 | 0.00 | 0.00 | 71 | 1006.7 |
| 20260901230936 | 88 | 110 | 8.0 | 16.0 | 0.00 | 0.00 | 0.00 | 71 | 1006.7 |
| 20260901230835 | 88 | 42 | 6.0 | 16.0 | 0.00 | 0.00 | 0.00 | 70 | 1006.6 |
| 20260901230737 | 88 | 71 | 5.0 | 16.0 | 0.00 | 0.00 | 0.00 | 70 | 1006.7 |
| 20260901230635 | 88 | 47 | 6.0 | 16.0 | 0.00 | 0.00 | 0.00 | 70 | 1006.6 |
| 20260901230536 | 89 | 42 | 8.0 | 16.0 | 0.00 | 0.00 | 0.00 | 69 | 1006.7 |
| 20260901230435 | 89 | 87 | 8.0 | 16.0 | 0.00 | 0.00 | 0.00 | 69 | 1006.6 |
| 20260901230337 | 89 | 35 | 7.0 | 16.0 | 0.00 | 0.00 | 0.00 | 68 | 1006.7 |
| 20260901230236 | 89 | 42 | 6.0 | 16.0 | 0.00 | 0.00 | 0.00 | 68 | 1006.7 |
| 20260901230136 | 90 | 42 | 8.0 | 16.0 | 0.00 | 0.00 | 0.00 | 67 | 1006.8 |
| 20260901230035 | 90 | 49 | 7.0 | 16.0 | 0.00 | 0.00 | 0.00 | 67 | 1006.8 |
| 20260901225935 | 90 | 345 | 7.0 | 15.0 | 0.00 | 0.00 | 0.00 | 66 | 1006.9 |
| 20260901225836 | 91 | 82 | 10.0 | 15.0 | 0.00 | 0.00 | 0.00 | 65 | 1006.8 |
| 20260901225738 | 91 | 21 | 9.0 | 15.0 | 0.00 | 0.00 | 0.00 | 64 | 1006.7 |
| 20260901225635 | 91 | 8 | 6.0 | 12.0 | 0.00 | 0.00 | 0.00 | 64 | 1006.8 |
| 20260901225535 | 91 | 51 | 5.0 | 7.0 | 0.00 | 0.00 | 0.00 | 64 | 1006.7 |
| 20260901225436 | 91 | 23 | 5.0 | 7.0 | 0.00 | 0.00 | 0.00 | 64 | 1006.7 |
| 20260901225336 | 91 | 20 | 4.0 | 7.0 | 0.00 | 0.00 | 0.00 | 64 | 1006.7 |
| 20260901225235 | 91 | 0 | 2.0 | 5.0 | 0.00 | 0.00 | 0.00 | 65 | 1006.7 |
| 20260901225137 | 91 | 62 | 1.0 | 5.0 | 0.00 | 0.00 | 0.00 | 65 | 1006.7 |
| 20260901225036 | 91 | 62 | 1.0 | 5.0 | 0.00 | 0.00 | 0.00 | 64 | 1006.7 |
| 20260901224937 | 91 | 62 | 1.0 | 5.0 | 0.00 | 0.00 | 0.00 | 64 | 1006.7 |
| 20260901224835 | 91 | 62 | 1.0 | 5.0 | 0.00 | 0.00 | 0.00 | 64 | 1006.7 |
| 20260901224737 | 91 | 62 | 2.0 | 5.0 | 0.00 | 0.00 | 0.00 | 64 | 1006.7 |
| 20260901224638 | 91 | 44 | 2.0 | 5.0 | 0.00 | 0.00 | 0.00 | 64 | 1006.7 |
| 20260901224535 | 91 | 42 | 3.0 | 5.0 | 0.00 | 0.00 | 0.00 | 65 | 1006.7 |
| 20260901224437 | 91 | 69 | 2.0 | 3.0 | 0.00 | 0.00 | 0.00 | 64 | 1006.6 |
| 20260901224335 | 91 | 71 | 1.0 | 3.0 | 0.00 | 0.00 | 0.00 | 64 | 1006.7 |
| 20260901224234 | 91 | 75 | 1.0 | 2.0 | 0.00 | 0.00 | 0.00 | 64 | 1006.6 |
| 20260901224136 | 91 | 75 | 1.0 | 2.0 | 0.00 | 0.00 | 0.00 | 64 | 1006.8 |
| 20260901224036 | 91 | 75 | 1.0 | 2.0 | 0.00 | 0.00 | 0.00 | 64 | 1006.7 |
| 20260901223935 | 90 | 75 | 1.0 | 3.0 | 0.00 | 0.00 | 0.00 | 64 | 1006.7 |
| 20260901223837 | 91 | 75 | 1.0 | 3.0 | 0.00 | 0.00 | 0.00 | 64 | 1006.7 |
| 20260901223735 | 91 | 75 | 1.0 | 3.0 | 0.00 | 0.00 | 0.00 | 65 | 1006.7 |
| 20260901223634 | 91 | 75 | 0.0 | 3.0 | 0.00 | 0.00 | 0.00 | 65 | 1006.7 |
| 20260901223535 | 90 | 75 | 0.0 | 3.0 | 0.00 | 0.00 | 0.00 | 65 | 1006.7 |
| 20260901223436 | 90 | 75 | 1.0 | 4.0 | 0.00 | 0.00 | 0.00 | 65 | 1006.7 |
| 20260901223334 | 90 | 75 | 0.0 | 4.0 | 0.00 | 0.00 | 0.00 | 65 | 1006.7 |
| 20260901223234 | 90 | 75 | 1.0 | 4.0 | 0.00 | 0.00 | 0.00 | 65 | 1006.7 |
| 20260901223134 | 90 | 75 | 2.0 | 4.0 | 0.00 | 0.00 | 0.00 | 65 | 1006.8 |
| 20260901223034 | 90 | 75 | 1.0 | 4.0 | 0.00 | 0.00 | 0.00 | 65 | 1006.8 |
| 20260901222937 | 90 | 75 | 1.0 | 4.0 | 0.00 | 0.00 | 0.00 | 65 | 1006.8 |
| 20260901222835 | 90 | 75 | 2.0 | 4.0 | 0.00 | 0.00 | 0.00 | 64 | 1006.8 |
| 20260901222734 | 90 | 75 | 2.0 | 4.0 | 0.00 | 0.00 | 0.00 | 64 | 1006.8 |
| 20260901222635 | 90 | 75 | 2.0 | 4.0 | 0.00 | 0.00 | 0.00 | 64 | 1006.7 |
| 20260901222536 | 90 | 75 | 2.0 | 4.0 | 0.00 | 0.00 | 0.00 | 64 | 1006.8 |
| 20260901222434 | 91 | 93 | 1.0 | 4.0 | 0.00 | 0.00 | 0.00 | 64 | 1006.8 |
| 20260901222332 | 91 | 93 | 1.0 | 5.0 | 0.00 | 0.00 | 0.00 | 64 | 1006.8 |
| 20260901222232 | 91 | 93 | 1.0 | 5.0 | 0.00 | 0.00 | 0.00 | 64 | 1006.8 |
| 20260901222131 | 91 | 94 | 0.0 | 5.0 | 0.00 | 0.00 | 0.00 | 64 | 1006.8 |
| 20260901222031 | 90 | 94 | 0.0 | 5.0 | 0.00 | 0.00 | 0.00 | 64 | 1006.7 |
| 20260901221932 | 90 | 94 | 1.0 | 5.0 | 0.00 | 0.00 | 0.00 | 64 | 1006.7 |
| 20260901221831 | 90 | 94 | 1.0 | 5.0 | 0.00 | 0.00 | 0.00 | 64 | 1006.7 |
| 20260901221731 | 90 | 96 | 1.0 | 5.0 | 0.00 | 0.00 | 0.00 | 65 | 1006.7 |
| 20260901221631 | 90 | 97 | 1.0 | 5.0 | 0.00 | 0.00 | 0.00 | 64 | 1006.8 |
| 20260901221532 | 90 | 97 | 2.0 | 5.0 | 0.00 | 0.00 | 0.00 | 65 | 1006.7 |
| 20260901221431 | 90 | 97 | 4.0 | 5.0 | 0.00 | 0.00 | 0.00 | 64 | 1006.8 |
| 20260901221331 | 90 | 96 | 3.0 | 5.0 | 0.00 | 0.00 | 0.00 | 64 | 1006.7 |
| 20260901221231 | 90 | 96 | 2.0 | 5.0 | 0.00 | 0.00 | 0.00 | 64 | 1006.7 |
| 20260901221132 | 90 | 103 | 1.0 | 3.0 | 0.00 | 0.00 | 0.00 | 64 | 1006.8 |
| 20260901221031 | 90 | 103 | 1.0 | 3.0 | 0.00 | 0.00 | 0.00 | 64 | 1006.7 |
| 20260901220932 | 90 | 103 | 2.0 | 3.0 | 0.00 | 0.00 | 0.00 | 64 | 1006.7 |
| 20260901220829 | 90 | 103 | 2.0 | 3.0 | 0.00 | 0.00 | 0.00 | 64 | 1006.7 |
| 20260901220727 | 90 | 103 | 2.0 | 3.0 | 0.00 | 0.00 | 0.00 | 64 | 1006.8 |
| 20260901220625 | 90 | 104 | 2.0 | 4.0 | 0.00 | 0.00 | 0.00 | 64 | 1006.8 |
| 20260901220522 | 90 | 106 | 1.0 | 4.0 | 0.00 | 0.00 | 0.00 | 64 | 1006.8 |
| 20260901220419 | 90 | 85 | 0.0 | 4.0 | 0.00 | 0.00 | 0.00 | 64 | 1006.9 |
| 20260901220318 | 90 | 85 | 0.0 | 5.0 | 0.00 | 0.00 | 0.00 | 64 | 1006.8 |
| 20260901220214 | 90 | 85 | 0.0 | 5.0 | 0.00 | 0.00 | 0.00 | 64 | 1006.8 |
| 20260901220112 | 90 | 85 | 0.0 | 5.0 | 0.00 | 0.00 | 0.00 | 64 | 1006.9 |
| 20260901220010 | 90 | 85 | 0.0 | 5.0 | 0.00 | 0.00 | 0.00 | 64 | 1007.0 |
| 20260901215910 | 90 | 85 | 1.0 | 5.0 | 0.00 | 0.00 | 0.00 | 64 | 1006.9 |
| 20260901215808 | 90 | 85 | 3.0 | 5.0 | 0.00 | 0.00 | 0.00 | 63 | 1007.0 |
| 20260901215702 | 90 | 85 | 3.0 | 5.0 | 0.00 | 0.00 | 0.00 | 63 | 1007.0 |
| 20260901215603 | 90 | 85 | 3.0 | 5.0 | 0.00 | 0.00 | 0.00 | 64 | 1007.0 |
| 20260901215504 | 90 | 93 | 3.0 | 5.0 | 0.00 | 0.00 | 0.00 | 64 | 1007.1 |
| 20260901215402 | 90 | 89 | 3.0 | 5.0 | 0.00 | 0.00 | 0.00 | 63 | 1006.9 |
| 20260901215305 | 90 | 69 | 3.0 | 4.0 | 0.00 | 0.00 | 0.00 | 64 | 1007.0 |
| 20260901215202 | 90 | 62 | 2.0 | 4.0 | 0.00 | 0.00 | 0.00 | 64 | 1007.0 |
| 20260901215104 | 90 | 11 | 0.0 | 4.0 | 0.00 | 0.00 | 0.00 | 64 | 1007.0 |
| 20260901215004 | 90 | 10 | 0.0 | 4.0 | 0.00 | 0.00 | 0.00 | 64 | 1007.1 |
| 20260901214904 | 90 | 10 | 0.0 | 4.0 | 0.00 | 0.00 | 0.00 | 64 | 1007.0 |
| 20260901214803 | 90 | 10 | 1.0 | 4.0 | 0.00 | 0.00 | 0.00 | 64 | 1007.1 |
| 20260901214703 | 90 | 10 | 2.0 | 4.0 | 0.00 | 0.00 | 0.00 | 64 | 1007.1 |
| 20260901214604 | 90 | 10 | 3.0 | 4.0 | 0.00 | 0.00 | 0.00 | 64 | 1007.2 |
| 20260901214503 | 90 | 11 | 2.0 | 4.0 | 0.00 | 0.00 | 0.00 | 64 | 1007.2 |
| 20260901214403 | 90 | 7 | 1.0 | 5.0 | 0.00 | 0.00 | 0.00 | 64 | 1007.2 |
| 20260901214303 | 90 | 37 | 1.0 | 7.0 | 0.00 | 0.00 | 0.00 | 64 | 1007.2 |
| 20260901214203 | 90 | 37 | 2.0 | 7.0 | 0.00 | 0.00 | 0.00 | 63 | 1007.2 |
| 20260901214102 | 90 | 37 | 2.0 | 7.0 | 0.00 | 0.00 | 0.00 | 63 | 1007.3 |
| 20260901214004 | 90 | 38 | 2.0 | 7.0 | 0.00 | 0.00 | 0.00 | 63 | 1007.2 |
| 20260901213902 | 90 | 37 | 2.0 | 7.0 | 0.00 | 0.00 | 0.00 | 63 | 1007.3 |
| 20260901213804 | 90 | 41 | 2.0 | 7.0 | 0.00 | 0.00 | 0.00 | 63 | 1007.3 |
| 20260901213703 | 90 | 41 | 2.0 | 7.0 | 0.00 | 0.00 | 0.00 | 63 | 1007.2 |
| 20260901213604 | 90 | 41 | 3.0 | 7.0 | 0.00 | 0.00 | 0.00 | 63 | 1007.3 |
| 20260901213503 | 90 | 41 | 4.0 | 7.0 | 0.00 | 0.00 | 0.00 | 62 | 1007.3 |
| 20260901213403 | 90 | 14 | 4.0 | 7.0 | 0.00 | 0.00 | 0.00 | 62 | 1007.3 |
| 20260901213305 | 90 | 16 | 4.0 | 6.0 | 0.00 | 0.00 | 0.00 | 62 | 1007.3 |
| 20260901213203 | 90 | 38 | 2.0 | 6.0 | 0.00 | 0.00 | 0.00 | 62 | 1007.2 |
| 20260901213103 | 90 | 21 | 1.0 | 6.0 | 0.00 | 0.00 | 0.00 | 62 | 1007.3 |
| 20260901213003 | 90 | 24 | 1.0 | 6.0 | 0.00 | 0.00 | 0.00 | 62 | 1007.2 |
| 20260901212903 | 90 | 24 | 2.0 | 7.0 | 0.00 | 0.00 | 0.00 | 62 | 1007.3 |
| 20260901212803 | 90 | 24 | 3.0 | 7.0 | 0.00 | 0.00 | 0.00 | 62 | 1007.2 |
| 20260901212704 | 90 | 25 | 3.0 | 7.0 | 0.00 | 0.00 | 0.00 | 63 | 1007.2 |
| 20260901212602 | 90 | 21 | 2.0 | 7.0 | 0.00 | 0.00 | 0.00 | 63 | 1007.3 |
| 20260901212503 | 90 | 16 | 2.0 | 7.0 | 0.00 | 0.00 | 0.00 | 63 | 1007.2 |
| 20260901212403 | 90 | 345 | 3.0 | 7.0 | 0.00 | 0.00 | 0.00 | 63 | 1007.2 |
| 20260901212306 | 90 | 345 | 3.0 | 7.0 | 0.00 | 0.00 | 0.00 | 63 | 1007.3 |
| 20260901212201 | 90 | 337 | 3.0 | 7.0 | 0.00 | 0.00 | 0.00 | 63 | 1007.2 |
| 20260901212101 | 90 | 333 | 4.0 | 7.0 | 0.00 | 0.00 | 0.00 | 63 | 1007.2 |
| 20260901212005 | 90 | 350 | 5.0 | 7.0 | 0.00 | 0.00 | 0.00 | 62 | 1007.3 |
| 20260901211902 | 90 | 321 | 5.0 | 6.0 | 0.00 | 0.00 | 0.00 | 62 | 1007.2 |
| 20260901211802 | 90 | 343 | 4.0 | 6.0 | 0.00 | 0.00 | 0.00 | 62 | 1007.2 |
| 20260901211703 | 90 | 0 | 4.0 | 6.0 | 0.00 | 0.00 | 0.00 | 62 | 1007.2 |
| 20260901211603 | 90 | 0 | 3.0 | 6.0 | 0.00 | 0.00 | 0.00 | 62 | 1007.2 |
| 20260901211503 | 90 | 4 | 4.0 | 7.0 | 0.00 | 0.00 | 0.00 | 62 | 1007.2 |
| 20260901211403 | 90 | 17 | 5.0 | 7.0 | 0.00 | 0.00 | 0.00 | 62 | 1007.2 |
| 20260901211302 | 90 | 17 | 4.0 | 7.0 | 0.00 | 0.00 | 0.00 | 62 | 1007.2 |
| 20260901211203 | 90 | 358 | 4.0 | 7.0 | 0.00 | 0.00 | 0.00 | 62 | 1007.2 |
| 20260901211101 | 90 | 0 | 4.0 | 7.0 | 0.00 | 0.00 | 0.00 | 62 | 1007.2 |
| 20260901211004 | 90 | 0 | 4.0 | 7.0 | 0.00 | 0.00 | 0.00 | 62 | 1007.2 |
| 20260901210902 | 90 | 17 | 3.0 | 7.0 | 0.00 | 0.00 | 0.00 | 61 | 1007.1 |
| 20260901210802 | 90 | 17 | 4.0 | 7.0 | 0.00 | 0.00 | 0.00 | 61 | 1007.1 |
| 20260901210703 | 90 | 42 | 5.0 | 7.0 | 0.00 | 0.00 | 0.00 | 61 | 1007.1 |
| 20260901210603 | 90 | 18 | 4.0 | 7.0 | 0.00 | 0.00 | 0.00 | 61 | 1007.2 |
| 20260901210504 | 90 | 49 | 3.0 | 7.0 | 0.00 | 0.00 | 0.00 | 63 | 1007.1 |
| 20260901210403 | 90 | 347 | 3.0 | 7.0 | 0.00 | 0.00 | 0.00 | 62 | 1007.1 |
| 20260901210302 | 89 | 343 | 4.0 | 7.0 | 0.00 | 0.00 | 0.00 | 62 | 1007.1 |
| 20260901210202 | 90 | 351 | 4.0 | 7.0 | 0.00 | 0.00 | 0.00 | 62 | 1007.0 |
| 20260901210005 | 89 | 0 | 3.0 | 7.0 | 0.00 | 0.00 | 0.00 | 63 | 1007.0 |
| 20260901205903 | 89 | 0 | 3.0 | 7.0 | 0.00 | 0.00 | 0.00 | 62 | 1007.1 |
| 20260901205803 | 89 | 0 | 4.0 | 7.0 | 0.00 | 0.00 | 0.00 | 63 | 1007.0 |
| 20260901205705 | 89 | 0 | 4.0 | 7.0 | 0.00 | 0.00 | 0.00 | 63 | 1007.1 |
| 20260901205604 | 89 | 344 | 3.0 | 7.0 | 0.00 | 0.00 | 0.00 | 63 | 1007.1 |
| 20260901205504 | 89 | 341 | 3.0 | 7.0 | 0.00 | 0.00 | 0.00 | 63 | 1007.2 |
| 20260901205402 | 89 | 336 | 2.0 | 7.0 | 0.00 | 0.00 | 0.00 | 63 | 1007.1 |
| 20260901205306 | 89 | 336 | 3.0 | 7.0 | 0.00 | 0.00 | 0.00 | 62 | 1007.1 |
| 20260901205202 | 89 | 345 | 4.0 | 7.0 | 0.00 | 0.00 | 0.00 | 62 | 1007.1 |
| 20260901205102 | 89 | 354 | 5.0 | 7.0 | 0.00 | 0.00 | 0.00 | 62 | 1007.1 |
| 20260901205004 | 90 | 348 | 4.0 | 7.0 | 0.00 | 0.00 | 0.00 | 62 | 1007.2 |
| 20260901204903 | 89 | 0 | 4.0 | 7.0 | 0.00 | 0.00 | 0.00 | 61 | 1007.2 |
| 20260901204804 | 89 | 24 | 4.0 | 7.0 | 0.00 | 0.00 | 0.00 | 61 | 1007.1 |
| 20260901204704 | 90 | 24 | 4.0 | 6.0 | 0.00 | 0.00 | 0.00 | 62 | 1007.2 |
| 20260901204604 | 90 | 27 | 3.0 | 6.0 | 0.00 | 0.00 | 0.00 | 63 | 1007.2 |
| 20260901204503 | 90 | 1 | 3.0 | 6.0 | 0.00 | 0.00 | 0.00 | 62 | 1007.2 |
| 20260901204404 | 89 | 39 | 2.0 | 6.0 | 0.00 | 0.00 | 0.00 | 62 | 1007.3 |
| 20260901204304 | 89 | 62 | 2.0 | 7.0 | 0.00 | 0.00 | 0.00 | 62 | 1007.2 |
| 20260901204201 | 89 | 75 | 2.0 | 7.0 | 0.00 | 0.00 | 0.00 | 62 | 1007.2 |
| 20260901204102 | 89 | 52 | 3.0 | 7.0 | 0.00 | 0.00 | 0.00 | 63 | 1007.3 |
| 20260901204002 | 89 | 56 | 3.0 | 7.0 | 0.00 | 0.00 | 0.00 | 62 | 1007.3 |
| 20260901203902 | 90 | 45 | 3.0 | 7.0 | 0.00 | 0.00 | 0.00 | 61 | 1007.3 |
| 20260901203803 | 90 | 39 | 4.0 | 7.0 | 0.00 | 0.00 | 0.00 | 62 | 1007.3 |
| 20260901203702 | 90 | 51 | 3.0 | 7.0 | 0.00 | 0.00 | 0.00 | 62 | 1007.3 |
| 20260901203602 | 90 | 31 | 3.0 | 7.0 | 0.00 | 0.00 | 0.00 | 63 | 1007.3 |
| 20260901203503 | 90 | 34 | 5.0 | 7.0 | 0.00 | 0.00 | 0.00 | 62 | 1007.4 |
| 20260901203403 | 90 | 4 | 6.0 | 7.0 | 0.00 | 0.00 | 0.00 | 62 | 1007.4 |
| 20260901203305 | 90 | 16 | 4.0 | 9.0 | 0.00 | 0.00 | 0.00 | 63 | 1007.4 |
| 20260901203203 | 90 | 13 | 4.0 | 9.0 | 0.00 | 0.00 | 0.00 | 63 | 1007.4 |
| 20260901203103 | 90 | 44 | 4.0 | 9.0 | 0.00 | 0.00 | 0.00 | 63 | 1007.4 |
| 20260901203002 | 90 | 14 | 5.0 | 9.0 | 0.00 | 0.00 | 0.00 | 63 | 1007.5 |
| 20260901202904 | 90 | 7 | 4.0 | 9.0 | 0.00 | 0.00 | 0.00 | 63 | 1007.4 |
| 20260901202803 | 90 | 32 | 4.0 | 9.0 | 0.00 | 0.00 | 0.00 | 64 | 1007.5 |
| 20260901202703 | 90 | 52 | 4.0 | 9.0 | 0.00 | 0.00 | 0.00 | 63 | 1007.5 |
| 20260901202603 | 90 | 125 | 4.0 | 9.0 | 0.00 | 0.00 | 0.00 | 63 | 1007.5 |
| 20260901202504 | 90 | 69 | 5.0 | 9.0 | 0.00 | 0.00 | 0.00 | 63 | 1007.6 |
| 20260901202404 | 90 | 0 | 5.0 | 10.0 | 0.00 | 0.00 | 0.00 | 63 | 1007.5 |
| 20260901202306 | 90 | 4 | 6.0 | 11.0 | 0.00 | 0.00 | 0.00 | 63 | 1007.6 |
| 20260901202203 | 90 | 0 | 6.0 | 11.0 | 0.00 | 0.00 | 0.00 | 63 | 1007.7 |
| 20260901202101 | 90 | 24 | 5.0 | 11.0 | 0.00 | 0.00 | 0.00 | 63 | 1007.7 |
| 20260901202004 | 91 | 7 | 3.0 | 11.0 | 0.00 | 0.00 | 0.00 | 62 | 1007.7 |
| 20260901201903 | 91 | 34 | 3.0 | 11.0 | 0.00 | 0.00 | 0.00 | 62 | 1007.7 |
| 20260901201803 | 91 | 23 | 5.0 | 11.0 | 0.00 | 0.00 | 0.00 | 62 | 1007.8 |
| 20260901201704 | 91 | 0 | 7.0 | 11.0 | 0.00 | 0.00 | 0.00 | 62 | 1007.9 |
| 20260901201603 | 91 | 0 | 7.0 | 11.0 | 0.00 | 0.00 | 0.00 | 62 | 1007.8 |
| 20260901201502 | 91 | 347 | 7.0 | 11.0 | 0.00 | 0.00 | 0.00 | 61 | 1007.8 |
| 20260901201403 | 91 | 7 | 5.0 | 11.0 | 0.00 | 0.00 | 0.00 | 62 | 1007.8 |
| 20260901201304 | 91 | 0 | 4.0 | 10.0 | 0.00 | 0.00 | 0.00 | 61 | 1007.9 |
| 20260901201203 | 91 | 8 | 6.0 | 10.0 | 0.00 | 0.00 | 0.00 | 61 | 1007.9 |
| 20260901201103 | 91 | 17 | 6.0 | 10.0 | 0.00 | 0.00 | 0.00 | 62 | 1007.9 |
| 20260901201003 | 91 | 32 | 5.0 | 10.0 | 0.00 | 0.00 | 0.00 | 62 | 1008.0 |
| 20260901200904 | 91 | 16 | 5.0 | 10.0 | 0.00 | 0.00 | 0.00 | 61 | 1008.0 |
| 20260901200803 | 91 | 39 | 4.0 | 10.0 | 0.00 | 0.00 | 0.00 | 63 | 1008.0 |
| 20260901200703 | 91 | 16 | 4.0 | 12.0 | 0.00 | 0.00 | 0.00 | 63 | 1008.0 |
| 20260901200603 | 91 | 32 | 4.0 | 12.0 | 0.00 | 0.00 | 0.00 | 62 | 1008.0 |
| 20260901200502 | 91 | 82 | 4.0 | 12.0 | 0.00 | 0.00 | 0.00 | 62 | 1008.0 |
| 20260901200402 | 91 | 56 | 5.0 | 12.0 | 0.00 | 0.00 | 0.00 | 62 | 1008.0 |
| 20260901200303 | 91 | 25 | 6.0 | 12.0 | 0.00 | 0.00 | 0.00 | 61 | 1008.1 |
| 20260901200204 | 91 | 348 | 5.0 | 12.0 | 0.00 | 0.00 | 0.00 | 61 | 1008.1 |
| 20260901200002 | 91 | 51 | 5.0 | 12.0 | 0.00 | 0.00 | 0.00 | 61 | 1008.1 |
| 20260901195903 | 91 | 38 | 7.0 | 12.0 | 0.00 | 0.00 | 0.00 | 60 | 1008.2 |
| 20260901195803 | 92 | 52 | 6.0 | 12.0 | 0.00 | 0.00 | 0.00 | 60 | 1008.1 |
| 20260901195703 | 92 | 358 | 5.0 | 10.0 | 0.00 | 0.00 | 0.00 | 61 | 1008.1 |
| 20260901195601 | 92 | 30 | 5.0 | 10.0 | 0.00 | 0.00 | 0.00 | 60 | 1008.2 |
| 20260901195502 | 91 | 110 | 5.0 | 10.0 | 0.00 | 0.00 | 0.00 | 61 | 1008.1 |
| 20260901195404 | 91 | 14 | 5.0 | 10.0 | 0.00 | 0.00 | 0.00 | 62 | 1008.2 |
| 20260901195305 | 91 | 20 | 4.0 | 10.0 | 0.00 | 0.00 | 0.00 | 62 | 1008.1 |
| 20260901195204 | 91 | 0 | 4.0 | 10.0 | 0.00 | 0.00 | 0.00 | 62 | 1008.2 |
| 20260901195103 | 92 | 347 | 5.0 | 10.0 | 0.00 | 0.00 | 0.00 | 62 | 1008.3 |
| 20260901195005 | 92 | 4 | 6.0 | 10.0 | 0.00 | 0.00 | 0.00 | 62 | 1008.2 |
| 20260901194902 | 92 | 341 | 6.0 | 10.0 | 0.00 | 0.00 | 0.00 | 62 | 1008.3 |
| 20260901194802 | 91 | 10 | 5.0 | 9.0 | 0.00 | 0.00 | 0.00 | 62 | 1008.2 |
| 20260901194703 | 91 | 55 | 3.0 | 7.0 | 0.00 | 0.00 | 0.00 | 62 | 1008.0 |
| 20260901194603 | 91 | 0 | 2.0 | 7.0 | 0.00 | 0.00 | 0.00 | 62 | 1008.2 |
| 20260901194503 | 91 | 340 | 2.0 | 7.0 | 0.00 | 0.00 | 0.00 | 62 | 1008.2 |
| 20260901194403 | 91 | 337 | 4.0 | 7.0 | 0.00 | 0.00 | 0.00 | 62 | 1008.2 |
| 20260901194302 | 91 | 337 | 6.0 | 7.0 | 0.00 | 0.00 | 0.00 | 62 | 1008.2 |
| 20260901194203 | 91 | 347 | 6.0 | 7.0 | 0.00 | 0.00 | 0.00 | 62 | 1008.3 |
| 20260901194102 | 91 | 357 | 5.0 | 7.0 | 0.00 | 0.00 | 0.00 | 63 | 1008.2 |
| 20260901194004 | 91 | 14 | 4.0 | 5.0 | 0.00 | 0.00 | 0.00 | 63 | 1008.2 |
| 20260901193901 | 91 | 1 | 3.0 | 5.0 | 0.00 | 0.00 | 0.00 | 62 | 1008.3 |
| 20260901193803 | 91 | 17 | 3.0 | 5.0 | 0.00 | 0.00 | 0.00 | 63 | 1008.3 |
| 20260901193703 | 91 | 343 | 3.0 | 6.0 | 0.00 | 0.00 | 0.00 | 63 | 1008.3 |
| 20260901193603 | 91 | 35 | 3.0 | 7.0 | 0.00 | 0.00 | 0.00 | 62 | 1008.2 |
| 20260901193505 | 91 | 23 | 4.0 | 7.0 | 0.00 | 0.00 | 0.00 | 61 | 1008.2 |
| 20260901193403 | 91 | 16 | 3.0 | 7.0 | 0.00 | 0.00 | 0.00 | 61 | 1008.3 |
| 20260901193302 | 91 | 41 | 3.0 | 7.0 | 0.00 | 0.00 | 0.00 | 61 | 1008.3 |
| 20260901193202 | 91 | 3 | 3.0 | 7.0 | 0.00 | 0.00 | 0.00 | 60 | 1008.3 |
| 20260901193104 | 91 | 3 | 4.0 | 7.0 | 0.00 | 0.00 | 0.00 | 62 | 1008.3 |
| 20260901193003 | 91 | 47 | 3.0 | 7.0 | 0.00 | 0.00 | 0.00 | 62 | 1008.3 |
| 20260901192903 | 91 | 0 | 4.0 | 7.0 | 0.00 | 0.00 | 0.00 | 61 | 1008.3 |
| 20260901192801 | 91 | 0 | 5.0 | 7.0 | 0.00 | 0.00 | 0.00 | 61 | 1008.3 |
| 20260901192703 | 91 | 8 | 6.0 | 7.0 | 0.00 | 0.00 | 0.00 | 62 | 1008.3 |
| 20260901192603 | 91 | 18 | 5.0 | 7.0 | 0.00 | 0.00 | 0.00 | 61 | 1008.3 |
| 20260901192504 | 91 | 0 | 4.0 | 6.0 | 0.00 | 0.00 | 0.00 | 62 | 1008.2 |
| 20260901192403 | 91 | 44 | 3.0 | 6.0 | 0.00 | 0.00 | 0.00 | 62 | 1008.3 |
| 20260901192306 | 91 | 59 | 2.0 | 6.0 | 0.00 | 0.00 | 0.00 | 62 | 1008.2 |
| 20260901192202 | 91 | 85 | 1.0 | 6.0 | 0.00 | 0.00 | 0.00 | 63 | 1008.2 |
| 20260901192103 | 91 | 83 | 2.0 | 6.0 | 0.00 | 0.00 | 0.00 | 63 | 1008.2 |
| 20260901192002 | 90 | 73 | 2.0 | 6.0 | 0.00 | 0.00 | 0.00 | 64 | 1008.3 |
| 20260901191903 | 90 | 102 | 3.0 | 6.0 | 0.00 | 0.00 | 0.00 | 64 | 1008.2 |
| 20260901191803 | 90 | 104 | 3.0 | 6.0 | 0.00 | 0.00 | 0.00 | 64 | 1008.3 |
| 20260901191703 | 90 | 48 | 2.0 | 6.0 | 0.00 | 0.00 | 0.00 | 63 | 1008.3 |
| 20260901191603 | 90 | 51 | 2.0 | 6.0 | 0.00 | 0.00 | 0.00 | 63 | 1008.3 |
| 20260901191503 | 90 | 51 | 1.0 | 6.0 | 0.00 | 0.00 | 0.00 | 64 | 1008.3 |
| 20260901191403 | 90 | 52 | 2.0 | 6.0 | 0.00 | 0.00 | 0.00 | 64 | 1008.3 |
| 20260901191303 | 90 | 51 | 3.0 | 6.0 | 0.00 | 0.00 | 0.00 | 64 | 1008.4 |
| 20260901191202 | 90 | 54 | 3.0 | 6.0 | 0.00 | 0.00 | 0.00 | 65 | 1008.3 |
| 20260901191103 | 90 | 61 | 2.0 | 6.0 | 0.00 | 0.00 | 0.00 | 65 | 1008.3 |
| 20260901191002 | 90 | 61 | 3.0 | 7.0 | 0.00 | 0.00 | 0.00 | 65 | 1008.4 |
| 20260901190902 | 90 | 63 | 4.0 | 7.0 | 0.00 | 0.00 | 0.00 | 65 | 1008.4 |
| 20260901190802 | 90 | 48 | 4.0 | 7.0 | 0.00 | 0.00 | 0.00 | 64 | 1008.3 |
| 20260901190703 | 90 | 56 | 4.0 | 7.0 | 0.00 | 0.00 | 0.00 | 64 | 1008.3 |
| 20260901190603 | 90 | 4 | 4.0 | 9.0 | 0.00 | 0.00 | 0.00 | 65 | 1008.3 |
| 20260901190504 | 90 | 20 | 2.0 | 9.0 | 0.00 | 0.00 | 0.00 | 65 | 1008.3 |
| 20260901190402 | 90 | 63 | 2.0 | 9.0 | 0.00 | 0.00 | 0.00 | 65 | 1008.4 |
| 20260901190302 | 90 | 83 | 2.0 | 9.0 | 0.00 | 0.00 | 0.00 | 64 | 1008.3 |
| 20260901190204 | 90 | 89 | 3.0 | 9.0 | 0.00 | 0.00 | 0.00 | 64 | 1008.3 |
| 20260901190003 | 90 | 100 | 4.0 | 9.0 | 0.00 | 0.00 | 0.00 | 64 | 1008.5 |
| 20260901185902 | 90 | 94 | 5.0 | 9.0 | 0.00 | 0.00 | 0.00 | 64 | 1008.4 |
| 20260901185804 | 91 | 75 | 6.0 | 9.0 | 0.00 | 0.00 | 0.00 | 63 | 1008.5 |
| 20260901185704 | 91 | 62 | 4.0 | 9.0 | 0.00 | 0.00 | 0.00 | 63 | 1008.5 |
| 20260901185602 | 91 | 58 | 2.0 | 7.0 | 0.00 | 0.00 | 0.00 | 63 | 1008.5 |
| 20260901185505 | 91 | 28 | 3.0 | 7.0 | 0.00 | 0.00 | 0.00 | 63 | 1008.5 |
| 20260901185403 | 91 | 71 | 5.0 | 7.0 | 0.00 | 0.00 | 0.00 | 63 | 1008.5 |
| 20260901185306 | 91 | 28 | 5.0 | 7.0 | 0.00 | 0.00 | 0.00 | 63 | 1008.5 |
| 20260901185203 | 91 | 25 | 5.0 | 7.0 | 0.00 | 0.00 | 0.00 | 63 | 1008.5 |
| 20260901185102 | 91 | 54 | 3.0 | 7.0 | 0.00 | 0.00 | 0.00 | 63 | 1008.5 |
| 20260901185003 | 91 | 73 | 2.0 | 6.0 | 0.00 | 0.00 | 0.00 | 64 | 1008.5 |
| 20260901184903 | 91 | 35 | 2.0 | 6.0 | 0.00 | 0.00 | 0.00 | 63 | 1008.6 |
| 20260901184802 | 91 | 97 | 3.0 | 6.0 | 0.00 | 0.00 | 0.00 | 63 | 1008.6 |
| 20260901184701 | 91 | 80 | 3.0 | 7.0 | 0.00 | 0.00 | 0.00 | 63 | 1008.6 |
| 20260901184603 | 91 | 103 | 2.0 | 7.0 | 0.00 | 0.00 | 0.00 | 63 | 1008.6 |
| 20260901184504 | 91 | 35 | 3.0 | 11.0 | 0.00 | 0.00 | 0.00 | 64 | 1008.6 |
| 20260901184404 | 90 | 0 | 4.0 | 11.0 | 0.00 | 0.00 | 0.00 | 64 | 1008.6 |
| 20260901184305 | 91 | 1 | 4.0 | 11.0 | 0.00 | 0.00 | 0.00 | 64 | 1008.7 |
| 20260901184202 | 91 | 340 | 4.0 | 11.0 | 0.00 | 0.00 | 0.00 | 64 | 1008.7 |
| 20260901184103 | 90 | 17 | 3.0 | 11.0 | 0.00 | 0.00 | 0.00 | 63 | 1008.7 |
| 20260901184004 | 90 | 6 | 2.0 | 11.0 | 0.00 | 0.00 | 0.00 | 63 | 1008.7 |
| 20260901183903 | 90 | 13 | 4.0 | 11.0 | 0.00 | 0.00 | 0.00 | 64 | 1008.7 |
| 20260901183801 | 90 | 11 | 5.0 | 11.0 | 0.00 | 0.00 | 0.00 | 64 | 1008.8 |
| 20260901183703 | 90 | 62 | 5.0 | 11.0 | 0.00 | 0.00 | 0.00 | 64 | 1008.7 |
| 20260901183602 | 90 | 0 | 4.0 | 11.0 | 0.00 | 0.00 | 0.00 | 64 | 1008.7 |
| 20260901183504 | 90 | 62 | 3.0 | 9.0 | 0.00 | 0.00 | 0.00 | 64 | 1008.7 |
| 20260901183404 | 90 | 49 | 4.0 | 9.0 | 0.00 | 0.00 | 0.00 | 64 | 1008.7 |
| 20260901183304 | 90 | 41 | 5.0 | 9.0 | 0.00 | 0.00 | 0.00 | 66 | 1008.7 |
| 20260901183202 | 90 | 0 | 6.0 | 9.0 | 0.00 | 0.00 | 0.00 | 66 | 1008.7 |
| 20260901183102 | 89 | 357 | 6.0 | 9.0 | 0.00 | 0.00 | 0.00 | 66 | 1008.8 |
| 20260901183002 | 89 | 290 | 4.0 | 9.0 | 0.00 | 0.00 | 0.00 | 65 | 1008.7 |
| 20260901182903 | 89 | 327 | 3.0 | 9.0 | 0.00 | 0.00 | 0.00 | 65 | 1008.7 |
| 20260901182803 | 89 | 66 | 3.0 | 10.0 | 0.00 | 0.00 | 0.00 | 66 | 1008.7 |
| 20260901182701 | 89 | 0 | 3.0 | 10.0 | 0.00 | 0.00 | 0.00 | 66 | 1008.8 |
| 20260901182603 | 89 | 330 | 4.0 | 10.0 | 0.00 | 0.00 | 0.00 | 66 | 1008.7 |
| 20260901182502 | 89 | 0 | 5.0 | 10.0 | 0.00 | 0.00 | 0.00 | 66 | 1008.8 |
| 20260901182402 | 89 | 296 | 5.0 | 10.0 | 0.00 | 0.00 | 0.00 | 65 | 1008.8 |
| 20260901182305 | 90 | 347 | 6.0 | 10.0 | 0.00 | 0.00 | 0.00 | 65 | 1008.9 |
| 20260901182202 | 90 | 336 | 6.0 | 10.0 | 0.00 | 0.00 | 0.00 | 65 | 1008.9 |
| 20260901182102 | 90 | 340 | 5.0 | 10.0 | 0.00 | 0.00 | 0.00 | 65 | 1008.9 |
| 20260901182004 | 90 | 0 | 5.0 | 10.0 | 0.00 | 0.00 | 0.00 | 65 | 1008.9 |
| 20260901181902 | 90 | 357 | 6.0 | 10.0 | 0.00 | 0.00 | 0.00 | 65 | 1008.9 |
| 20260901181804 | 90 | 348 | 3.0 | 10.0 | 0.00 | 0.00 | 0.00 | 66 | 1008.9 |
| 20260901181703 | 89 | 11 | 2.0 | 10.0 | 0.00 | 0.00 | 0.00 | 66 | 1008.9 |
| 20260901181604 | 89 | 11 | 3.0 | 10.0 | 0.00 | 0.00 | 0.00 | 65 | 1008.8 |
| 20260901181504 | 89 | 0 | 6.0 | 10.0 | 0.00 | 0.00 | 0.00 | 65 | 1009.0 |
| 20260901181403 | 89 | 16 | 6.0 | 10.0 | 0.00 | 0.00 | 0.00 | 65 | 1008.9 |
| 20260901181303 | 89 | 0 | 7.0 | 10.0 | 0.00 | 0.00 | 0.00 | 65 | 1008.9 |
| 20260901181202 | 89 | 0 | 7.0 | 10.0 | 0.00 | 0.00 | 0.00 | 65 | 1008.9 |
| 20260901181102 | 89 | 357 | 7.0 | 10.0 | 0.00 | 0.00 | 0.00 | 65 | 1008.9 |
| 20260901181002 | 89 | 6 | 4.0 | 10.0 | 0.00 | 0.00 | 0.00 | 65 | 1008.9 |
| 20260901180905 | 89 | 68 | 1.0 | 9.0 | 0.00 | 0.00 | 0.00 | 66 | 1008.9 |
| 20260901180802 | 89 | 30 | 2.0 | 9.0 | 0.00 | 0.00 | 0.00 | 66 | 1009.0 |
| 20260901180704 | 89 | 11 | 4.0 | 9.0 | 0.00 | 0.00 | 0.00 | 66 | 1009.1 |
| 20260901180603 | 89 | 75 | 4.0 | 9.0 | 0.00 | 0.00 | 0.00 | 66 | 1009.0 |
| 20260901180504 | 89 | 71 | 6.0 | 9.0 | 0.00 | 0.00 | 0.00 | 65 | 1009.0 |
| 20260901180403 | 89 | 31 | 6.0 | 9.0 | 0.00 | 0.00 | 0.00 | 65 | 1009.1 |
| 20260901180303 | 90 | 0 | 6.0 | 9.0 | 0.00 | 0.00 | 0.00 | 65 | 1009.1 |
| 20260901180203 | 90 | 44 | 6.0 | 10.0 | 0.00 | 0.00 | 0.00 | 65 | 1009.1 |
| 20260901180105 | 90 | 4 | 5.0 | 12.0 | 0.00 | 0.00 | 0.00 | 65 | 1009.1 |
| 20260901180003 | 90 | 14 | 5.0 | 12.0 | 0.00 | 0.00 | 0.00 | 66 | 1009.1 |
| 20260901175902 | 89 | 343 | 4.0 | 12.0 | 0.00 | 0.00 | 0.00 | 66 | 1009.1 |
| 20260901175803 | 89 | 340 | 5.0 | 12.0 | 0.00 | 0.00 | 0.00 | 66 | 1009.1 |
| 20260901175704 | 89 | 78 | 4.0 | 12.0 | 0.00 | 0.00 | 0.00 | 66 | 1009.2 |
| 20260901175604 | 89 | 4 | 4.0 | 12.0 | 0.00 | 0.00 | 0.00 | 65 | 1009.1 |
| 20260901175503 | 89 | 0 | 5.0 | 12.0 | 0.00 | 0.00 | 0.00 | 65 | 1009.2 |
| 20260901175403 | 89 | 333 | 7.0 | 12.0 | 0.00 | 0.00 | 0.00 | 65 | 1009.2 |
| 20260901175305 | 89 | 0 | 8.0 | 12.0 | 0.00 | 0.00 | 0.00 | 65 | 1009.3 |
| 20260901175202 | 89 | 0 | 8.0 | 12.0 | 0.00 | 0.00 | 0.00 | 65 | 1009.3 |
| 20260901175102 | 89 | 336 | 6.0 | 11.0 | 0.00 | 0.00 | 0.00 | 66 | 1009.2 |
| 20260901175004 | 89 | 25 | 4.0 | 11.0 | 0.00 | 0.00 | 0.00 | 65 | 1009.3 |
| 20260901174901 | 89 | 25 | 6.0 | 11.0 | 0.00 | 0.00 | 0.00 | 65 | 1009.3 |
| 20260901174803 | 89 | 0 | 6.0 | 11.0 | 0.00 | 0.00 | 0.00 | 65 | 1009.3 |
| 20260901174704 | 89 | 30 | 6.0 | 11.0 | 0.00 | 0.00 | 0.00 | 66 | 1009.3 |
| 20260901174602 | 89 | 35 | 6.0 | 11.0 | 0.00 | 0.00 | 0.00 | 66 | 1009.3 |
| 20260901174504 | 89 | 0 | 7.0 | 11.0 | 0.00 | 0.00 | 0.00 | 66 | 1009.4 |
| 20260901174402 | 89 | 344 | 7.0 | 11.0 | 0.00 | 0.00 | 0.00 | 66 | 1009.5 |
| 20260901174303 | 89 | 0 | 7.0 | 11.0 | 0.00 | 0.00 | 0.00 | 66 | 1009.5 |
| 20260901174203 | 89 | 0 | 6.0 | 11.0 | 0.00 | 0.00 | 0.00 | 66 | 1009.5 |
| 20260901174103 | 89 | 37 | 5.0 | 11.0 | 0.00 | 0.00 | 0.00 | 67 | 1009.4 |
| 20260901174007 | 89 | 16 | 5.0 | 11.0 | 0.00 | 0.00 | 0.00 | 67 | 1009.6 |
| 20260901173903 | 89 | 0 | 5.0 | 11.0 | 0.00 | 0.00 | 0.00 | 67 | 1009.7 |
| 20260901173802 | 89 | 4 | 6.0 | 11.0 | 0.00 | 0.00 | 0.00 | 67 | 1009.5 |
| 20260901173704 | 89 | 329 | 7.0 | 11.0 | 0.00 | 0.00 | 0.00 | 67 | 1009.6 |
| 20260901173603 | 89 | 316 | 8.0 | 11.0 | 0.00 | 0.00 | 0.00 | 67 | 1009.6 |
| 20260901173503 | 89 | 355 | 7.0 | 11.0 | 0.00 | 0.00 | 0.00 | 68 | 1009.7 |
| 20260901173403 | 89 | 18 | 6.0 | 11.0 | 0.00 | 0.00 | 0.00 | 68 | 1009.7 |
| 20260901173303 | 89 | 0 | 6.0 | 11.0 | 0.00 | 0.00 | 0.00 | 68 | 1009.7 |
| 20260901173202 | 89 | 343 | 6.0 | 11.0 | 0.00 | 0.00 | 0.00 | 68 | 1009.7 |
| 20260901173102 | 89 | 344 | 5.0 | 11.0 | 0.00 | 0.00 | 0.00 | 68 | 1009.7 |
| 20260901173002 | 89 | 7 | 5.0 | 11.0 | 0.00 | 0.00 | 0.00 | 68 | 1009.7 |
| 20260901172903 | 88 | 4 | 5.0 | 11.0 | 0.00 | 0.00 | 0.00 | 69 | 1009.8 |
| 20260901172804 | 88 | 358 | 6.0 | 11.0 | 0.00 | 0.00 | 0.00 | 69 | 1009.7 |
| 20260901172702 | 88 | 66 | 6.0 | 11.0 | 0.00 | 0.00 | 0.00 | 69 | 1009.8 |
| 20260901172602 | 88 | 353 | 8.0 | 11.0 | 0.00 | 0.00 | 0.00 | 69 | 1009.8 |
| 20260901172505 | 88 | 0 | 7.0 | 11.0 | 0.00 | 0.00 | 0.00 | 69 | 1009.8 |
| 20260901172403 | 88 | 336 | 7.0 | 11.0 | 0.00 | 0.00 | 0.00 | 70 | 1009.8 |
| 20260901172304 | 88 | 0 | 7.0 | 11.0 | 0.00 | 0.00 | 0.00 | 70 | 1009.8 |
| 20260901172202 | 88 | 355 | 6.0 | 12.0 | 0.00 | 0.00 | 0.00 | 70 | 1009.8 |
| 20260901172101 | 88 | 314 | 6.0 | 12.0 | 0.00 | 0.00 | 0.00 | 71 | 1009.8 |
| 20260901172001 | 88 | 30 | 6.0 | 12.0 | 0.00 | 0.00 | 0.00 | 70 | 1009.9 |
| 20260901171859 | 88 | 341 | 5.0 | 12.0 | 0.00 | 0.00 | 0.00 | 71 | 1009.9 |
| 20260901171755 | 88 | 0 | 6.0 | 12.0 | 0.00 | 0.00 | 0.00 | 71 | 1009.9 |
| 20260901171654 | 88 | 0 | 6.0 | 12.0 | 0.00 | 0.00 | 0.00 | 71 | 1009.9 |
| 20260901171551 | 88 | 0 | 6.0 | 12.0 | 0.00 | 0.00 | 0.00 | 71 | 1010.0 |
| 20260901171448 | 88 | 0 | 8.0 | 12.0 | 0.00 | 0.00 | 0.00 | 71 | 1010.0 |
| 20260901171341 | 88 | 3 | 7.0 | 12.0 | 0.00 | 0.00 | 0.00 | 71 | 1010.1 |
| 20260901171238 | 88 | 353 | 5.0 | 10.0 | 0.00 | 0.00 | 0.00 | 70 | 1010.1 |
| 20260901171133 | 87 | 330 | 5.0 | 10.0 | 0.00 | 0.00 | 0.00 | 70 | 1010.0 |
| 20260901171032 | 87 | 0 | 5.0 | 10.0 | 0.00 | 0.00 | 0.00 | 71 | 1010.1 |
| 20260901170931 | 88 | 357 | 6.0 | 10.0 | 0.00 | 0.00 | 0.00 | 71 | 1010.2 |
| 20260901170830 | 88 | 14 | 6.0 | 12.0 | 0.00 | 0.00 | 0.00 | 71 | 1010.1 |
| 20260901170731 | 88 | 11 | 6.0 | 12.0 | 0.00 | 0.00 | 0.00 | 71 | 1010.1 |
| 20260901170633 | 88 | 348 | 7.0 | 12.0 | 0.00 | 0.00 | 0.00 | 71 | 1010.2 |
| 20260901170532 | 88 | 350 | 6.0 | 12.0 | 0.00 | 0.00 | 0.00 | 71 | 1010.2 |
| 20260901170432 | 88 | 357 | 5.0 | 12.0 | 0.00 | 0.00 | 0.00 | 71 | 1010.2 |
| 20260901170332 | 88 | 20 | 6.0 | 12.0 | 0.00 | 0.00 | 0.00 | 71 | 1010.2 |
| 20260901170231 | 88 | 32 | 7.0 | 12.0 | 0.00 | 0.00 | 0.00 | 71 | 1010.3 |
| 20260901170131 | 88 | 341 | 8.0 | 12.0 | 0.00 | 0.00 | 0.00 | 70 | 1010.2 |
| 20260901170032 | 88 | 334 | 8.0 | 12.0 | 0.00 | 0.00 | 0.00 | 70 | 1010.1 |
| 20260901165932 | 88 | 340 | 7.0 | 12.0 | 0.00 | 0.00 | 0.00 | 70 | 1010.2 |
| 20260901165830 | 88 | 21 | 7.0 | 11.0 | 0.00 | 0.00 | 0.00 | 70 | 1010.2 |
| 20260901165731 | 88 | 0 | 6.0 | 11.0 | 0.00 | 0.00 | 0.00 | 71 | 1010.2 |
| 20260901165632 | 88 | 14 | 6.0 | 11.0 | 0.00 | 0.00 | 0.00 | 71 | 1010.1 |
| 20260901165531 | 88 | 0 | 8.0 | 11.0 | 0.00 | 0.00 | 0.00 | 71 | 1010.2 |
| 20260901165430 | 88 | 331 | 8.0 | 11.0 | 0.00 | 0.00 | 0.00 | 71 | 1010.2 |
| 20260901165332 | 87 | 303 | 8.0 | 11.0 | 0.00 | 0.00 | 0.00 | 70 | 1010.2 |
| 20260901165232 | 88 | 338 | 8.0 | 11.0 | 0.00 | 0.00 | 0.00 | 70 | 1010.2 |
| 20260901165131 | 87 | 4 | 8.0 | 11.0 | 0.00 | 0.00 | 0.00 | 71 | 1010.2 |
| 20260901165031 | 88 | 329 | 7.0 | 11.0 | 0.00 | 0.00 | 0.00 | 71 | 1010.2 |
| 20260901164932 | 88 | 0 | 6.0 | 11.0 | 0.00 | 0.00 | 0.00 | 72 | 1010.2 |
| 20260901164831 | 88 | 13 | 8.0 | 11.0 | 0.00 | 0.00 | 0.00 | 72 | 1010.2 |
| 20260901164730 | 88 | 8 | 8.0 | 11.0 | 0.00 | 0.00 | 0.00 | 72 | 1010.3 |